Time,TemperatureF,DewpointF,PressureIn,WindDirection,WindDirectionDegrees,WindSpeedMPH,WindSpeedGustMPH,Humidity,HourlyPrecipIn,Conditions,Clouds,dailyrainin,SoftwareType,DateUTC
2013-01-06 00:04:00,23.4,8.8,30.45,WSW,240,4.0,5.0,53,0.00,,,0.00,Wunderground v.1.15,2013-01-06 07:04:00,
2013-01-06 00:05:00,23.4,8.8,30.45,SW,233,5.0,5.0,53,0.00,,,0.00,Wunderground v.1.15,2013-01-06 07:05:00,
2013-01-06 00:07:00,23.5,8.9,30.44,SW,224,3.0,5.0,53,0.00,,,0.00,Wunderground v.1.15,2013-01-06 07:07:00,
2013-01-06 00:13:00,23.2,8.6,30.44,SW,217,5.0,6.0,53,0.00,,,0.00,Wunderground v.1.15,2013-01-06 07:13:00,
2013-01-06 00:16:00,22.9,8.7,30.44,WSW,240,3.0,6.0,54,0.00,,,0.00,Wunderground v.1.15,2013-01-06 07:16:00,
2013-01-06 00:19:00,23.2,9.0,30.44,WSW,245,5.0,6.0,54,0.00,,,0.00,Wunderground v.1.15,2013-01-06 07:19:00,
2013-01-06 00:22:00,23.2,8.6,30.44,SW,231,5.0,5.0,53,0.00,,,0.00,Wunderground v.1.15,2013-01-06 07:22:00,
2013-01-06 00:24:00,23.0,8.8,30.44,SSW,212,4.0,5.0,54,0.00,,,0.00,Wunderground v.1.15,2013-01-06 07:24:00,
2013-01-06 00:30:00,22.8,9.0,30.44,SSW,192,4.0,4.0,55,0.00,,,0.00,Wunderground v.1.15,2013-01-06 07:30:00,
2013-01-06 00:32:00,22.8,9.0,30.44,SSW,201,3.0,5.0,55,0.00,,,0.00,Wunderground v.1.15,2013-01-06 07:32:00,
2013-01-06 00:36:00,22.8,9.0,30.44,WSW,245,4.0,5.0,55,0.00,,,0.00,Wunderground v.1.15,2013-01-06 07:36:00,
2013-01-06 00:37:00,22.8,9.0,30.44,SSW,200,3.0,5.0,55,0.00,,,0.00,Wunderground v.1.15,2013-01-06 07:37:00,
2013-01-06 00:42:00,22.2,8.9,30.44,West,260,5.0,6.0,56,0.00,,,0.00,Wunderground v.1.15,2013-01-06 07:42:00,
2013-01-06 00:43:00,22.2,8.9,30.44,WSW,255,5.0,6.0,56,0.00,,,0.00,Wunderground v.1.15,2013-01-06 07:43:00,
2013-01-06 00:44:00,22.3,9.4,30.44,WSW,250,4.0,6.0,57,0.00,,,0.00,Wunderground v.1.15,2013-01-06 07:44:00,
2013-01-06 00:45:00,22.2,8.9,30.44,WSW,255,4.0,6.0,56,0.00,,,0.00,Wunderground v.1.15,2013-01-06 07:45:00,
2013-01-06 00:48:00,22.4,9.1,30.44,SW,224,5.0,6.0,56,0.00,,,0.00,Wunderground v.1.15,2013-01-06 07:48:00,
2013-01-06 00:49:00,22.4,9.1,30.44,WSW,253,4.0,6.0,56,0.00,,,0.00,Wunderground v.1.15,2013-01-06 07:49:00,
2013-01-06 00:51:00,22.3,9.0,30.43,WSW,248,6.0,6.0,56,0.00,,,0.00,Wunderground v.1.15,2013-01-06 07:51:00,
2013-01-06 00:55:00,22.2,8.9,30.43,SW,222,5.0,6.0,56,0.00,,,0.00,Wunderground v.1.15,2013-01-06 07:55:00,
2013-01-06 00:56:00,22.2,9.3,30.43,SSW,207,5.0,6.0,57,0.00,,,0.00,Wunderground v.1.15,2013-01-06 07:56:00,
2013-01-06 00:57:00,22.2,10.0,30.43,SW,231,3.0,6.0,59,0.00,,,0.00,Wunderground v.1.15,2013-01-06 07:57:00,
2013-01-06 01:02:00,22.3,9.4,30.43,WSW,250,6.0,6.0,57,0.00,,,0.00,Wunderground v.1.15,2013-01-06 08:02:00,
2013-01-06 01:06:00,21.7,8.8,30.43,WSW,238,5.0,6.0,57,0.00,,,0.00,Wunderground v.1.15,2013-01-06 08:06:00,
2013-01-06 01:07:00,21.6,8.7,30.43,WSW,257,7.0,7.0,57,0.00,,,0.00,Wunderground v.1.15,2013-01-06 08:07:00,
2013-01-06 01:09:00,21.7,9.2,30.43,WSW,255,6.0,7.0,58,0.00,,,0.00,Wunderground v.1.15,2013-01-06 08:09:00,
2013-01-06 01:10:00,21.7,8.8,30.43,WSW,240,4.0,5.0,57,0.00,,,0.00,Wunderground v.1.15,2013-01-06 08:10:00,
2013-01-06 01:12:00,21.6,8.7,30.43,SW,219,6.0,6.0,57,0.00,,,0.00,Wunderground v.1.15,2013-01-06 08:12:00,
2013-01-06 01:18:00,21.3,9.2,30.43,SW,228,6.0,6.0,59,0.00,,,0.00,Wunderground v.1.15,2013-01-06 08:18:00,
2013-01-06 01:19:00,21.3,9.2,30.43,WSW,238,4.0,6.0,59,0.00,,,0.00,Wunderground v.1.15,2013-01-06 08:19:00,
2013-01-06 01:24:00,21.3,9.2,30.43,WSW,243,5.0,5.0,59,0.00,,,0.00,Wunderground v.1.15,2013-01-06 08:24:00,
2013-01-06 01:25:00,21.3,8.8,30.43,SW,228,5.0,5.0,58,0.00,,,0.00,Wunderground v.1.15,2013-01-06 08:25:00,
2013-01-06 01:30:00,21.3,9.6,30.43,SW,217,6.0,6.0,60,0.00,,,0.00,Wunderground v.1.15,2013-01-06 08:30:00,
2013-01-06 01:31:00,21.4,10.0,30.43,SW,235,4.0,6.0,61,0.00,,,0.00,Wunderground v.1.15,2013-01-06 08:31:00,
2013-01-06 01:32:00,21.4,8.9,30.43,South,181,3.0,6.0,58,0.00,,,0.00,Wunderground v.1.15,2013-01-06 08:32:00,
2013-01-06 01:36:00,21.9,9.7,30.43,WSW,250,6.0,6.0,59,0.00,,,0.00,Wunderground v.1.15,2013-01-06 08:36:00,
2013-01-06 01:40:00,21.7,8.8,30.43,SW,217,5.0,5.0,57,0.00,,,0.00,Wunderground v.1.15,2013-01-06 08:40:00,
2013-01-06 01:43:00,21.6,9.1,30.43,SSW,210,5.0,5.0,58,0.00,,,0.00,Wunderground v.1.15,2013-01-06 08:43:00,
2013-01-06 01:48:00,21.6,8.7,30.43,West,272,3.0,5.0,57,0.00,,,0.00,Wunderground v.1.15,2013-01-06 08:48:00,
2013-01-06 01:49:00,21.6,9.1,30.43,SSW,207,4.0,5.0,58,0.00,,,0.00,Wunderground v.1.15,2013-01-06 08:49:00,
2013-01-06 01:50:00,21.7,9.9,30.43,WSW,238,4.0,4.0,60,0.00,,,0.00,Wunderground v.1.15,2013-01-06 08:50:00,
2013-01-06 01:54:00,22.0,9.1,30.43,SW,217,3.0,7.0,57,0.00,,,0.00,Wunderground v.1.15,2013-01-06 08:54:00,
2013-01-06 01:55:00,22.0,8.7,30.43,WSW,240,5.0,7.0,56,0.00,,,0.00,Wunderground v.1.15,2013-01-06 08:55:00,
2013-01-06 01:56:00,21.9,8.6,30.43,SW,229,5.0,7.0,56,0.00,,,0.00,Wunderground v.1.15,2013-01-06 08:56:00,
2013-01-06 01:59:00,21.6,8.7,30.43,SW,231,5.0,7.0,57,0.00,,,0.00,Wunderground v.1.15,2013-01-06 08:59:00,
2013-01-06 02:00:00,21.6,8.7,30.43,SW,215,5.0,5.0,57,0.00,,,0.00,Wunderground v.1.15,2013-01-06 09:00:00,
2013-01-06 02:01:00,21.5,9.0,30.43,SW,215,3.0,5.0,58,0.00,,,0.00,Wunderground v.1.15,2013-01-06 09:01:00,
2013-01-06 02:04:00,21.5,8.6,30.43,SSW,207,5.0,6.0,57,0.00,,,0.00,Wunderground v.1.15,2013-01-06 09:04:00,
2013-01-06 02:05:00,21.6,8.7,30.43,SSW,207,4.0,6.0,57,0.00,,,0.00,Wunderground v.1.15,2013-01-06 09:05:00,
2013-01-06 02:06:00,21.6,8.7,30.43,SSW,208,2.0,6.0,57,0.00,,,0.00,Wunderground v.1.15,2013-01-06 09:06:00,
2013-01-06 02:09:00,21.8,8.9,30.43,SW,235,4.0,7.0,57,0.00,,,0.00,Wunderground v.1.15,2013-01-06 09:09:00,
2013-01-06 02:10:00,21.7,8.8,30.43,WSW,252,3.0,4.0,57,0.00,,,0.00,Wunderground v.1.15,2013-01-06 09:10:00,
2013-01-06 02:11:00,21.7,8.8,30.43,SSW,204,3.0,4.0,57,0.00,,,0.00,Wunderground v.1.15,2013-01-06 09:11:00,
2013-01-06 02:14:00,22.0,9.1,30.43,SW,217,4.0,7.0,57,0.00,,,0.00,Wunderground v.1.15,2013-01-06 09:14:00,
2013-01-06 02:15:00,22.1,9.2,30.43,South,190,5.0,7.0,57,0.00,,,0.00,Wunderground v.1.15,2013-01-06 09:15:00,
2013-01-06 02:16:00,22.1,9.2,30.43,SSW,209,5.0,7.0,57,0.00,,,0.00,Wunderground v.1.15,2013-01-06 09:16:00,
2013-01-06 02:19:00,22.0,8.7,30.43,SW,215,4.0,7.0,56,0.00,,,0.00,Wunderground v.1.15,2013-01-06 09:19:00,
2013-01-06 02:20:00,21.9,8.6,30.43,SW,215,2.0,4.0,56,0.00,,,0.00,Wunderground v.1.15,2013-01-06 09:20:00,
2013-01-06 02:21:00,21.9,8.6,30.43,WSW,245,4.0,6.0,56,0.00,,,0.00,Wunderground v.1.15,2013-01-06 09:21:00,
2013-01-06 02:25:00,21.4,8.1,30.43,SW,217,4.0,7.0,56,0.00,,,0.00,Wunderground v.1.15,2013-01-06 09:25:00,
2013-01-06 02:26:00,21.5,8.6,30.43,WSW,238,6.0,7.0,57,0.00,,,0.00,Wunderground v.1.15,2013-01-06 09:26:00,
2013-01-06 02:30:00,21.7,9.2,30.43,SSW,205,4.0,4.0,58,0.00,,,0.00,Wunderground v.1.15,2013-01-06 09:30:00,
2013-01-06 02:31:00,21.7,8.8,30.43,SSW,212,4.0,5.0,57,0.00,,,0.00,Wunderground v.1.15,2013-01-06 09:31:00,
2013-01-06 02:35:00,22.0,9.1,30.43,SW,235,4.0,7.0,57,0.00,,,0.00,Wunderground v.1.15,2013-01-06 09:35:00,
2013-01-06 02:36:00,22.1,8.8,30.42,WSW,257,5.0,7.0,56,0.00,,,0.00,Wunderground v.1.15,2013-01-06 09:36:00,
2013-01-06 02:40:00,22.1,8.0,30.42,SSW,212,3.0,5.0,54,0.00,,,0.00,Wunderground v.1.15,2013-01-06 09:40:00,
2013-01-06 02:41:00,22.1,8.0,30.43,WSW,240,3.0,5.0,54,0.00,,,0.00,Wunderground v.1.15,2013-01-06 09:41:00,
2013-01-06 02:42:00,22.0,7.9,30.43,SW,233,3.0,5.0,54,0.00,,,0.00,Wunderground v.1.15,2013-01-06 09:42:00,
2013-01-06 02:45:00,21.3,7.6,30.42,SW,225,5.0,7.0,55,0.00,,,0.00,Wunderground v.1.15,2013-01-06 09:45:00,
2013-01-06 02:46:00,21.3,7.6,30.42,SSW,198,5.0,7.0,55,0.00,,,0.00,Wunderground v.1.15,2013-01-06 09:46:00,
2013-01-06 02:47:00,21.3,7.6,30.42,SW,235,5.0,7.0,55,0.00,,,0.00,Wunderground v.1.15,2013-01-06 09:47:00,
2013-01-06 02:50:00,21.4,7.3,30.42,WSW,246,6.0,6.0,54,0.00,,,0.00,Wunderground v.1.15,2013-01-06 09:50:00,
2013-01-06 02:51:00,21.4,7.3,30.42,SW,221,6.0,6.0,54,0.00,,,0.00,Wunderground v.1.15,2013-01-06 09:51:00,
2013-01-06 02:52:00,21.3,7.2,30.42,SW,216,4.0,7.0,54,0.00,,,0.00,Wunderground v.1.15,2013-01-06 09:52:00,
2013-01-06 02:55:00,21.6,7.5,30.42,SW,229,5.0,7.0,54,0.00,,,0.00,Wunderground v.1.15,2013-01-06 09:55:00,
2013-01-06 02:56:00,21.6,7.5,30.42,WSW,245,5.0,7.0,54,0.00,,,0.00,Wunderground v.1.15,2013-01-06 09:56:00,
2013-01-06 02:57:00,21.7,7.2,30.42,West,259,6.0,7.0,53,0.00,,,0.00,Wunderground v.1.15,2013-01-06 09:57:00,
2013-01-06 03:01:00,22.0,7.0,30.42,WSW,254,5.0,6.0,52,0.00,,,0.00,Wunderground v.1.15,2013-01-06 10:01:00,
2013-01-06 03:02:00,22.1,7.1,30.42,WSW,243,6.0,6.0,52,0.00,,,0.00,Wunderground v.1.15,2013-01-06 10:02:00,
2013-01-06 03:06:00,22.3,7.3,30.42,South,188,4.0,6.0,52,0.00,,,0.00,Wunderground v.1.15,2013-01-06 10:06:00,
2013-01-06 03:07:00,22.3,7.3,30.42,WSW,240,4.0,6.0,52,0.00,,,0.00,Wunderground v.1.15,2013-01-06 10:07:00,
2013-01-06 03:11:00,22.6,6.3,30.41,WSW,238,4.0,6.0,49,0.00,,,0.00,Wunderground v.1.15,2013-01-06 10:11:00,
2013-01-06 03:12:00,22.7,6.4,30.41,WSW,240,3.0,6.0,49,0.00,,,0.00,Wunderground v.1.15,2013-01-06 10:12:00,
2013-01-06 03:13:00,22.7,6.4,30.42,SSW,207,4.0,6.0,49,0.00,,,0.00,Wunderground v.1.15,2013-01-06 10:13:00,
2013-01-06 03:16:00,22.8,6.9,30.41,SSW,203,4.0,6.0,50,0.00,,,0.00,Wunderground v.1.15,2013-01-06 10:16:00,
2013-01-06 03:17:00,22.9,7.0,30.41,SSW,210,3.0,6.0,50,0.00,,,0.00,Wunderground v.1.15,2013-01-06 10:17:00,
2013-01-06 03:18:00,22.9,6.6,30.41,SW,219,3.0,6.0,49,0.00,,,0.00,Wunderground v.1.15,2013-01-06 10:18:00,
2013-01-06 03:21:00,22.9,6.1,30.41,SSW,212,4.0,5.0,48,0.00,,,0.00,Wunderground v.1.15,2013-01-06 10:21:00,
2013-01-06 03:22:00,22.9,6.1,30.41,SW,236,4.0,5.0,48,0.00,,,0.00,Wunderground v.1.15,2013-01-06 10:22:00,
2013-01-06 03:23:00,22.9,6.1,30.41,SW,224,3.0,5.0,48,0.00,,,0.00,Wunderground v.1.15,2013-01-06 10:23:00,
2013-01-06 03:26:00,22.8,6.5,30.41,South,187,3.0,5.0,49,0.00,,,0.00,Wunderground v.1.15,2013-01-06 10:26:00,
2013-01-06 03:27:00,22.8,6.5,30.41,SSW,192,3.0,5.0,49,0.00,,,0.00,Wunderground v.1.15,2013-01-06 10:27:00,
2013-01-06 03:28:00,22.7,6.4,30.41,WSW,240,3.0,5.0,49,0.00,,,0.00,Wunderground v.1.15,2013-01-06 10:28:00,
2013-01-06 03:31:00,22.3,5.6,30.41,SW,228,4.0,5.0,48,0.00,,,0.00,Wunderground v.1.15,2013-01-06 10:31:00,
2013-01-06 03:32:00,22.3,5.6,30.41,SW,226,4.0,5.0,48,0.00,,,0.00,Wunderground v.1.15,2013-01-06 10:32:00,
2013-01-06 03:33:00,22.3,6.0,30.41,SSW,200,4.0,6.0,49,0.00,,,0.00,Wunderground v.1.15,2013-01-06 10:33:00,
2013-01-06 03:37:00,22.0,5.7,30.41,WSW,240,5.0,6.0,49,0.00,,,0.00,Wunderground v.1.15,2013-01-06 10:37:00,
2013-01-06 03:38:00,22.0,5.7,30.41,SSW,207,4.0,6.0,49,0.00,,,0.00,Wunderground v.1.15,2013-01-06 10:38:00,
2013-01-06 03:42:00,22.0,5.7,30.41,WSW,245,3.0,6.0,49,0.00,,,0.00,Wunderground v.1.15,2013-01-06 10:42:00,
2013-01-06 03:43:00,22.1,5.8,30.41,SW,226,4.0,6.0,49,0.00,,,0.00,Wunderground v.1.15,2013-01-06 10:43:00,
2013-01-06 03:47:00,22.7,5.0,30.41,SW,217,3.0,6.0,46,0.00,,,0.00,Wunderground v.1.15,2013-01-06 10:47:00,
2013-01-06 03:48:00,22.7,5.0,30.41,SW,236,5.0,6.0,46,0.00,,,0.00,Wunderground v.1.15,2013-01-06 10:48:00,
2013-01-06 03:52:00,22.7,4.0,30.40,SSW,208,5.0,5.0,44,0.00,,,0.00,Wunderground v.1.15,2013-01-06 10:52:00,
2013-01-06 03:53:00,22.5,3.8,30.41,SSW,195,4.0,5.0,44,0.00,,,0.00,Wunderground v.1.15,2013-01-06 10:53:00,
2013-01-06 03:57:00,22.4,3.7,30.41,SW,236,4.0,6.0,44,0.00,,,0.00,Wunderground v.1.15,2013-01-06 10:57:00,
2013-01-06 03:58:00,22.4,4.2,30.40,SW,225,6.0,6.0,45,0.00,,,0.00,Wunderground v.1.15,2013-01-06 10:58:00,
2013-01-06 04:02:00,22.3,4.6,30.40,SW,228,7.0,8.0,46,0.00,,,0.00,Wunderground v.1.15,2013-01-06 11:02:00,
2013-01-06 04:03:00,22.3,4.6,30.40,WSW,243,5.0,8.0,46,0.00,,,0.00,Wunderground v.1.15,2013-01-06 11:03:00,
2013-01-06 04:07:00,22.3,4.6,30.40,SSW,193,4.0,8.0,46,0.00,,,0.00,Wunderground v.1.15,2013-01-06 11:07:00,
2013-01-06 04:08:00,22.2,4.5,30.40,WSW,257,7.0,8.0,46,0.00,,,0.00,Wunderground v.1.15,2013-01-06 11:08:00,
2013-01-06 04:12:00,22.3,4.6,30.40,WSW,253,5.0,7.0,46,0.00,,,0.00,Wunderground v.1.15,2013-01-06 11:12:00,
2013-01-06 04:13:00,22.3,4.6,30.40,WSW,238,5.0,7.0,46,0.00,,,0.00,Wunderground v.1.15,2013-01-06 11:13:00,
2013-01-06 04:17:00,22.5,4.3,30.40,SSW,210,5.0,7.0,45,0.00,,,0.00,Wunderground v.1.15,2013-01-06 11:17:00,
2013-01-06 04:18:00,22.5,4.3,30.40,SW,228,6.0,7.0,45,0.00,,,0.00,Wunderground v.1.15,2013-01-06 11:18:00,
2013-01-06 04:19:00,22.7,4.0,30.40,WSW,243,6.0,7.0,44,0.00,,,0.00,Wunderground v.1.15,2013-01-06 11:19:00,
2013-01-06 04:22:00,22.9,3.7,30.40,West,260,4.0,6.0,43,0.00,,,0.00,Wunderground v.1.15,2013-01-06 11:22:00,
2013-01-06 04:23:00,22.9,3.7,30.40,WSW,246,4.0,6.0,43,0.00,,,0.00,Wunderground v.1.15,2013-01-06 11:23:00,
2013-01-06 04:25:00,22.5,3.3,30.40,SW,224,5.0,6.0,43,0.00,,,0.00,Wunderground v.1.15,2013-01-06 11:25:00,
2013-01-06 04:27:00,22.2,3.6,30.40,WSW,240,4.0,7.0,44,0.00,,,0.00,Wunderground v.1.15,2013-01-06 11:27:00,
2013-01-06 04:28:00,22.2,3.6,30.40,WSW,243,4.0,7.0,44,0.00,,,0.00,Wunderground v.1.15,2013-01-06 11:28:00,
2013-01-06 04:30:00,22.0,3.9,30.39,WSW,253,6.0,6.0,45,0.00,,,0.00,Wunderground v.1.15,2013-01-06 11:30:00,
2013-01-06 04:33:00,21.7,4.1,30.39,West,259,5.0,7.0,46,0.00,,,0.00,Wunderground v.1.15,2013-01-06 11:33:00,
2013-01-06 04:35:00,21.7,4.1,30.39,SW,221,5.0,7.0,46,0.00,,,0.00,Wunderground v.1.15,2013-01-06 11:35:00,
2013-01-06 04:38:00,21.7,4.1,30.39,SW,222,3.0,7.0,46,0.00,,,0.00,Wunderground v.1.15,2013-01-06 11:38:00,
2013-01-06 04:41:00,22.2,4.1,30.39,SW,226,5.0,5.0,45,0.00,,,0.00,Wunderground v.1.15,2013-01-06 11:41:00,
2013-01-06 04:43:00,22.4,4.2,30.38,WSW,238,5.0,7.0,45,0.00,,,0.00,Wunderground v.1.15,2013-01-06 11:43:00,
2013-01-06 04:46:00,22.0,3.9,30.38,SW,235,7.0,7.0,45,0.00,,,0.00,Wunderground v.1.15,2013-01-06 11:46:00,
2013-01-06 04:48:00,21.7,4.1,30.38,West,260,6.0,7.0,46,0.00,,,0.00,Wunderground v.1.15,2013-01-06 11:48:00,
2013-01-06 04:49:00,21.7,4.1,30.38,WSW,255,6.0,7.0,46,0.00,,,0.00,Wunderground v.1.15,2013-01-06 11:49:00,
2013-01-06 04:51:00,21.9,3.8,30.38,WSW,258,4.0,6.0,45,0.00,,,0.00,Wunderground v.1.15,2013-01-06 11:51:00,
2013-01-06 04:53:00,21.9,4.3,30.38,South,172,5.0,6.0,46,0.00,,,0.00,Wunderground v.1.15,2013-01-06 11:53:00,
2013-01-06 04:54:00,21.9,4.3,30.38,South,186,5.0,6.0,46,0.00,,,0.00,Wunderground v.1.15,2013-01-06 11:54:00,
2013-01-06 04:56:00,21.8,4.2,30.38,WSW,249,5.0,6.0,46,0.00,,,0.00,Wunderground v.1.15,2013-01-06 11:56:00,
2013-01-06 04:58:00,21.8,3.7,30.38,WSW,248,4.0,6.0,45,0.00,,,0.00,Wunderground v.1.15,2013-01-06 11:58:00,
2013-01-06 04:59:00,21.9,3.8,30.38,WSW,253,4.0,6.0,45,0.00,,,0.00,Wunderground v.1.15,2013-01-06 11:59:00,
2013-01-06 05:01:00,21.9,3.8,30.38,WSW,257,6.0,7.0,45,0.00,,,0.00,Wunderground v.1.15,2013-01-06 12:01:00,
2013-01-06 05:03:00,21.8,3.7,30.38,SSW,207,4.0,7.0,45,0.00,,,0.00,Wunderground v.1.15,2013-01-06 12:03:00,
2013-01-06 05:04:00,21.8,3.7,30.38,SSW,204,3.0,7.0,45,0.00,,,0.00,Wunderground v.1.15,2013-01-06 12:04:00,
2013-01-06 05:07:00,22.1,3.5,30.38,West,259,5.0,7.0,44,0.00,,,0.00,Wunderground v.1.15,2013-01-06 12:07:00,
2013-01-06 05:09:00,22.3,3.2,30.38,WSW,250,6.0,7.0,43,0.00,,,0.00,Wunderground v.1.15,2013-01-06 12:09:00,
2013-01-06 05:10:00,22.3,3.7,30.38,WSW,255,6.0,6.0,44,0.00,,,0.00,Wunderground v.1.15,2013-01-06 12:10:00,
2013-01-06 05:12:00,21.9,3.3,30.38,WSW,238,5.0,7.0,44,0.00,,,0.00,Wunderground v.1.15,2013-01-06 12:12:00,
2013-01-06 05:14:00,21.7,3.1,30.38,West,260,6.0,7.0,44,0.00,,,0.00,Wunderground v.1.15,2013-01-06 12:14:00,
2013-01-06 05:15:00,21.8,3.2,30.38,WSW,250,5.0,7.0,44,0.00,,,0.00,Wunderground v.1.15,2013-01-06 12:15:00,
2013-01-06 05:17:00,21.9,3.3,30.38,WSW,253,6.0,8.0,44,0.00,,,0.00,Wunderground v.1.15,2013-01-06 12:17:00,
2013-01-06 05:19:00,22.0,3.4,30.38,WSW,248,4.0,8.0,44,0.00,,,0.00,Wunderground v.1.15,2013-01-06 12:19:00,
2013-01-06 05:20:00,22.0,3.4,30.38,West,260,6.0,7.0,44,0.00,,,0.00,Wunderground v.1.15,2013-01-06 12:20:00,
2013-01-06 05:22:00,22.0,4.3,30.38,SSW,197,6.0,7.0,46,0.00,,,0.00,Wunderground v.1.15,2013-01-06 12:22:00,
2013-01-06 05:24:00,21.9,4.3,30.38,SSW,200,3.0,7.0,46,0.00,,,0.00,Wunderground v.1.15,2013-01-06 12:24:00,
2013-01-06 05:25:00,21.8,4.6,30.38,WSW,240,3.0,7.0,47,0.00,,,0.00,Wunderground v.1.15,2013-01-06 12:25:00,
2013-01-06 05:27:00,21.5,3.4,30.38,WSW,238,6.0,8.0,45,0.00,,,0.00,Wunderground v.1.15,2013-01-06 12:27:00,
2013-01-06 05:29:00,21.1,3.0,30.38,WSW,257,8.0,8.0,45,0.00,,,0.00,Wunderground v.1.15,2013-01-06 12:29:00,
2013-01-06 05:30:00,21.2,3.1,30.38,WSW,257,7.0,7.0,45,0.00,,,0.00,Wunderground v.1.15,2013-01-06 12:30:00,
2013-01-06 05:32:00,21.3,2.7,30.38,West,262,5.0,8.0,44,0.00,,,0.00,Wunderground v.1.15,2013-01-06 12:32:00,
2013-01-06 05:34:00,21.5,2.9,30.38,WSW,240,5.0,8.0,44,0.00,,,0.00,Wunderground v.1.15,2013-01-06 12:34:00,
2013-01-06 05:35:00,21.5,2.9,30.38,WSW,255,7.0,8.0,44,0.00,,,0.00,Wunderground v.1.15,2013-01-06 12:35:00,
2013-01-06 05:38:00,21.7,2.6,30.38,West,259,6.0,8.0,43,0.00,,,0.00,Wunderground v.1.15,2013-01-06 12:38:00,
2013-01-06 05:39:00,21.8,2.7,30.38,WSW,252,6.0,8.0,43,0.00,,,0.00,Wunderground v.1.15,2013-01-06 12:39:00,
2013-01-06 05:40:00,21.9,2.3,30.38,SW,225,5.0,7.0,42,0.00,,,0.00,Wunderground v.1.15,2013-01-06 12:40:00,
2013-01-06 05:43:00,22.0,4.3,30.38,SSE,160,6.0,7.0,46,0.00,,,0.00,Wunderground v.1.15,2013-01-06 12:43:00,
2013-01-06 05:44:00,22.1,5.8,30.38,SSW,202,3.0,8.0,49,0.00,,,0.00,Wunderground v.1.15,2013-01-06 12:44:00,
2013-01-06 05:46:00,22.3,6.4,30.38,SSW,195,5.0,8.0,50,0.00,,,0.00,Wunderground v.1.15,2013-01-06 12:46:00,
2013-01-06 05:48:00,22.4,6.1,30.38,SW,225,6.0,8.0,49,0.00,,,0.00,Wunderground v.1.15,2013-01-06 12:48:00,
2013-01-06 05:49:00,22.6,5.8,30.38,WSW,254,4.0,8.0,48,0.00,,,0.00,Wunderground v.1.15,2013-01-06 12:49:00,
2013-01-06 05:50:00,22.8,4.1,30.38,WSW,255,3.0,5.0,44,0.00,,,0.00,Wunderground v.1.15,2013-01-06 12:50:00,
2013-01-06 05:51:00,23.1,3.4,30.38,SW,215,4.0,5.0,42,0.00,,,0.00,Wunderground v.1.15,2013-01-06 12:51:00,
2013-01-06 05:53:00,23.3,4.1,30.38,West,262,6.0,7.0,43,0.00,,,0.00,Wunderground v.1.15,2013-01-06 12:53:00,
2013-01-06 05:54:00,23.2,3.5,30.38,WSW,248,7.0,7.0,42,0.00,,,0.00,Wunderground v.1.15,2013-01-06 12:54:00,
2013-01-06 05:55:00,23.1,2.9,30.38,WSW,238,6.0,7.0,41,0.00,,,0.00,Wunderground v.1.15,2013-01-06 12:55:00,
2013-01-06 05:56:00,22.7,2.5,30.38,WSW,243,6.0,7.0,41,0.00,,,0.00,Wunderground v.1.15,2013-01-06 12:56:00,
2013-01-06 05:58:00,21.9,2.8,30.38,SW,229,4.0,7.0,43,0.00,,,0.00,Wunderground v.1.15,2013-01-06 12:58:00,
2013-01-06 05:59:00,21.8,2.7,30.38,SSW,209,4.0,7.0,43,0.00,,,0.00,Wunderground v.1.15,2013-01-06 12:59:00,
2013-01-06 06:00:00,21.7,2.6,30.38,SW,214,4.0,5.0,43,0.00,,,0.00,Wunderground v.1.15,2013-01-06 13:00:00,
2013-01-06 06:01:00,21.6,3.0,30.39,SSW,203,4.0,5.0,44,0.00,,,0.00,Wunderground v.1.15,2013-01-06 13:01:00,
2013-01-06 06:04:00,21.6,4.0,30.39,SSW,207,5.0,6.0,46,0.00,,,0.00,Wunderground v.1.15,2013-01-06 13:04:00,
2013-01-06 06:05:00,21.6,3.5,30.39,SW,221,4.0,6.0,45,0.00,,,0.00,Wunderground v.1.15,2013-01-06 13:05:00,
2013-01-06 06:06:00,21.6,3.0,30.39,South,188,4.0,6.0,44,0.00,,,0.00,Wunderground v.1.15,2013-01-06 13:06:00,
2013-01-06 06:09:00,21.5,2.9,30.39,WSW,246,6.0,6.0,44,0.00,,,0.00,Wunderground v.1.15,2013-01-06 13:09:00,
2013-01-06 06:10:00,21.4,2.3,30.38,WSW,240,5.0,7.0,43,0.00,,,0.00,Wunderground v.1.15,2013-01-06 13:10:00,
2013-01-06 06:11:00,21.4,1.8,30.38,SW,235,6.0,7.0,42,0.00,,,0.00,Wunderground v.1.15,2013-01-06 13:11:00,
2013-01-06 06:14:00,21.1,1.6,30.39,WSW,245,6.0,7.0,42,0.00,,,0.00,Wunderground v.1.15,2013-01-06 13:14:00,
2013-01-06 06:16:00,20.9,1.4,30.39,West,262,6.0,8.0,42,0.00,,,0.00,Wunderground v.1.15,2013-01-06 13:16:00,
2013-01-06 06:19:00,20.0,1.5,30.39,WSW,248,7.0,8.0,44,0.00,,,0.00,Wunderground v.1.15,2013-01-06 13:19:00,
2013-01-06 06:21:00,19.6,1.7,30.39,WSW,255,8.0,8.0,45,0.00,,,0.00,Wunderground v.1.15,2013-01-06 13:21:00,
2013-01-06 06:24:00,19.7,1.8,30.38,WSW,249,6.0,8.0,45,0.00,,,0.00,Wunderground v.1.15,2013-01-06 13:24:00,
2013-01-06 06:25:00,19.7,1.8,30.38,WSW,252,8.0,8.0,45,0.00,,,0.00,Wunderground v.1.15,2013-01-06 13:25:00,
2013-01-06 06:26:00,19.6,1.7,30.38,WSW,256,6.0,8.0,45,0.00,,,0.00,Wunderground v.1.15,2013-01-06 13:26:00,
2013-01-06 06:30:00,19.6,1.7,30.38,SSW,210,5.0,6.0,45,0.00,,,0.00,Wunderground v.1.15,2013-01-06 13:30:00,
2013-01-06 06:31:00,19.8,1.4,30.38,SW,224,7.0,7.0,44,0.00,,,0.00,Wunderground v.1.15,2013-01-06 13:31:00,
2013-01-06 06:35:00,20.9,1.4,30.38,WSW,249,4.0,7.0,42,0.00,,,0.00,Wunderground v.1.15,2013-01-06 13:35:00,
2013-01-06 06:36:00,21.3,1.2,30.38,West,259,5.0,7.0,41,0.00,,,0.00,Wunderground v.1.15,2013-01-06 13:36:00,
2013-01-06 06:40:00,22.1,0.3,30.38,West,259,5.0,5.0,38,0.00,,,0.00,Wunderground v.1.15,2013-01-06 13:40:00,
2013-01-06 06:41:00,22.1,0.3,30.38,West,260,5.0,6.0,38,0.00,,,0.00,Wunderground v.1.15,2013-01-06 13:41:00,
2013-01-06 06:45:00,22.3,-0.1,30.38,WSW,245,5.0,6.0,37,0.00,,,0.00,Wunderground v.1.15,2013-01-06 13:45:00,
2013-01-06 06:46:00,22.4,0.0,30.38,SSW,211,4.0,6.0,37,0.00,,,0.00,Wunderground v.1.15,2013-01-06 13:46:00,
2013-01-06 06:47:00,22.4,0.0,30.38,SSW,200,2.0,6.0,37,0.00,,,0.00,Wunderground v.1.15,2013-01-06 13:47:00,
2013-01-06 06:50:00,22.3,-0.1,30.38,WSW,256,4.0,4.0,37,0.00,,,0.00,Wunderground v.1.15,2013-01-06 13:50:00,
2013-01-06 06:51:00,22.2,-0.2,30.38,SW,226,4.0,6.0,37,0.00,,,0.00,Wunderground v.1.15,2013-01-06 13:51:00,
2013-01-06 06:52:00,22.2,-0.2,30.38,SSW,200,3.0,6.0,37,0.00,,,0.00,Wunderground v.1.15,2013-01-06 13:52:00,
2013-01-06 06:55:00,21.9,0.1,30.38,SW,229,5.0,6.0,38,0.00,,,0.00,Wunderground v.1.15,2013-01-06 13:55:00,
2013-01-06 06:56:00,21.8,0.0,30.38,West,259,4.0,6.0,38,0.00,,,0.00,Wunderground v.1.15,2013-01-06 13:56:00,
2013-01-06 06:57:00,21.8,0.0,30.38,SW,235,4.0,6.0,38,0.00,,,0.00,Wunderground v.1.15,2013-01-06 13:57:00,
2013-01-06 07:00:00,22.0,-0.3,30.38,SW,228,4.0,6.0,37,0.00,,,0.00,Wunderground v.1.15,2013-01-06 14:00:00,
2013-01-06 07:02:00,22.0,-0.3,30.38,West,259,6.0,7.0,37,0.00,,,0.00,Wunderground v.1.15,2013-01-06 14:02:00,
2013-01-06 07:05:00,21.8,-0.5,30.38,SW,226,4.0,7.0,37,0.00,,,0.00,Wunderground v.1.15,2013-01-06 14:05:00,
2013-01-06 07:06:00,21.7,0.0,30.38,WSW,238,5.0,7.0,38,0.00,,,0.00,Wunderground v.1.15,2013-01-06 14:06:00,
2013-01-06 07:07:00,21.7,0.0,30.38,SSW,210,4.0,7.0,38,0.00,,,0.00,Wunderground v.1.15,2013-01-06 14:07:00,
2013-01-06 07:10:00,21.9,-0.4,30.37,SSW,207,4.0,5.0,37,0.00,,,0.00,Wunderground v.1.15,2013-01-06 14:10:00,
2013-01-06 07:11:00,22.0,-0.9,30.37,SSW,210,4.0,5.0,36,0.00,,,0.00,Wunderground v.1.15,2013-01-06 14:11:00,
2013-01-06 07:12:00,22.1,-0.8,30.37,SSW,203,4.0,5.0,36,0.00,,,0.00,Wunderground v.1.15,2013-01-06 14:12:00,
2013-01-06 07:15:00,22.4,-1.2,30.37,SSW,212,5.0,5.0,35,0.00,,,0.00,Wunderground v.1.15,2013-01-06 14:15:00,
2013-01-06 07:16:00,22.5,-1.1,30.37,SSW,212,4.0,7.0,35,0.00,,,0.00,Wunderground v.1.15,2013-01-06 14:16:00,
2013-01-06 07:17:00,22.6,-1.0,30.37,SW,229,6.0,7.0,35,0.00,,,0.00,Wunderground v.1.15,2013-01-06 14:17:00,
2013-01-06 07:21:00,22.8,-1.4,30.37,WSW,240,5.0,6.0,34,0.00,,,0.00,Wunderground v.1.15,2013-01-06 14:21:00,
2013-01-06 07:22:00,22.9,-1.3,30.37,SW,228,5.0,6.0,34,0.00,,,0.00,Wunderground v.1.15,2013-01-06 14:22:00,
2013-01-06 07:26:00,22.7,-0.9,30.37,WSW,250,4.0,6.0,35,0.00,,,0.00,Wunderground v.1.15,2013-01-06 14:26:00,
2013-01-06 07:27:00,22.6,-1.0,30.37,SW,228,6.0,6.0,35,0.00,,,0.00,Wunderground v.1.15,2013-01-06 14:27:00,
2013-01-06 07:28:00,22.6,-1.0,30.37,WSW,245,5.0,6.0,35,0.00,,,0.00,Wunderground v.1.15,2013-01-06 14:28:00,
2013-01-06 07:31:00,22.7,-1.5,30.37,WSW,238,5.0,6.0,34,0.00,,,0.00,Wunderground v.1.15,2013-01-06 14:31:00,
2013-01-06 07:32:00,22.7,-0.9,30.37,WSW,248,6.0,6.0,35,0.00,,,0.00,Wunderground v.1.15,2013-01-06 14:32:00,
2013-01-06 07:33:00,22.7,-0.9,30.37,WSW,252,7.0,7.0,35,0.00,,,0.00,Wunderground v.1.15,2013-01-06 14:33:00,
2013-01-06 07:36:00,22.3,-0.1,30.37,SSW,195,5.0,7.0,37,0.00,,,0.00,Wunderground v.1.15,2013-01-06 14:36:00,
2013-01-06 07:38:00,22.2,-0.2,30.37,WSW,238,4.0,7.0,37,0.00,,,0.00,Wunderground v.1.15,2013-01-06 14:38:00,
2013-01-06 07:41:00,22.2,-0.7,30.37,South,191,4.0,6.0,36,0.00,,,0.00,Wunderground v.1.15,2013-01-06 14:41:00,
2013-01-06 07:42:00,22.3,-0.1,30.37,SSW,210,2.0,6.0,37,0.00,,,0.00,Wunderground v.1.15,2013-01-06 14:42:00,
2013-01-06 07:43:00,22.3,-0.1,30.37,SW,231,3.0,6.0,37,0.00,,,0.00,Wunderground v.1.15,2013-01-06 14:43:00,
2013-01-06 07:46:00,22.1,-0.3,30.37,SSW,198,2.0,6.0,37,0.00,,,0.00,Wunderground v.1.15,2013-01-06 14:46:00,
2013-01-06 07:47:00,22.1,-0.8,30.37,SSW,212,3.0,6.0,36,0.00,,,0.00,Wunderground v.1.15,2013-01-06 14:47:00,
2013-01-06 07:48:00,22.2,-0.7,30.37,SSW,211,4.0,6.0,36,0.00,,,0.00,Wunderground v.1.15,2013-01-06 14:48:00,
2013-01-06 07:51:00,22.1,-0.3,30.37,SW,235,3.0,5.0,37,0.00,,,0.00,Wunderground v.1.15,2013-01-06 14:51:00,
2013-01-06 07:52:00,22.1,-0.8,30.37,SW,224,4.0,5.0,36,0.00,,,0.00,Wunderground v.1.15,2013-01-06 14:52:00,
2013-01-06 07:53:00,22.2,-0.7,30.37,WSW,252,4.0,5.0,36,0.00,,,0.00,Wunderground v.1.15,2013-01-06 14:53:00,
2013-01-06 07:56:00,22.3,-0.7,30.37,SW,215,5.0,7.0,36,0.00,,,0.00,Wunderground v.1.15,2013-01-06 14:56:00,
2013-01-06 07:57:00,22.3,-0.7,30.37,SSW,212,6.0,7.0,36,0.00,,,0.00,Wunderground v.1.15,2013-01-06 14:57:00,
2013-01-06 07:58:00,22.3,-0.7,30.37,SSW,203,4.0,7.0,36,0.00,,,0.00,Wunderground v.1.15,2013-01-06 14:58:00,
2013-01-06 08:01:00,22.8,-0.8,30.37,WSW,238,5.0,6.0,35,0.00,,,0.00,Wunderground v.1.15,2013-01-06 15:01:00,
2013-01-06 08:02:00,22.8,-0.8,30.37,WSW,243,4.0,6.0,35,0.00,,,0.00,Wunderground v.1.15,2013-01-06 15:02:00,
2013-01-06 08:03:00,22.9,-0.1,30.37,SSW,213,5.0,6.0,36,0.00,,,0.00,Wunderground v.1.15,2013-01-06 15:03:00,
2013-01-06 08:07:00,23.3,0.2,30.37,WSW,240,4.0,6.0,36,0.00,,,0.00,Wunderground v.1.15,2013-01-06 15:07:00,
2013-01-06 08:08:00,23.3,-0.4,30.37,WSW,238,4.0,6.0,35,0.00,,,0.00,Wunderground v.1.15,2013-01-06 15:08:00,
2013-01-06 08:12:00,24.0,-1.0,30.37,South,190,2.0,5.0,33,0.00,,,0.00,Wunderground v.1.15,2013-01-06 15:12:00,
2013-01-06 08:13:00,24.3,-0.7,30.37,SSW,206,3.0,6.0,33,0.00,,,0.00,Wunderground v.1.15,2013-01-06 15:13:00,
2013-01-06 08:17:00,24.6,-1.1,30.37,SW,229,4.0,6.0,32,0.00,,,0.00,Wunderground v.1.15,2013-01-06 15:17:00,
2013-01-06 08:18:00,24.6,-1.1,30.37,SW,236,3.0,6.0,32,0.00,,,0.00,Wunderground v.1.15,2013-01-06 15:18:00,
2013-01-06 08:22:00,24.7,-1.0,30.37,South,178,4.0,7.0,32,0.00,,,0.00,Wunderground v.1.15,2013-01-06 15:22:00,
2013-01-06 08:24:00,24.9,-0.2,30.37,South,190,3.0,7.0,33,0.00,,,0.00,Wunderground v.1.15,2013-01-06 15:24:00,
2013-01-06 08:27:00,25.5,-0.3,30.37,WSW,239,4.0,7.0,32,0.00,,,0.00,Wunderground v.1.15,2013-01-06 15:27:00,
2013-01-06 08:29:00,25.8,-0.1,30.37,South,177,6.0,7.0,32,0.00,,,0.00,Wunderground v.1.15,2013-01-06 15:29:00,
2013-01-06 08:32:00,26.1,0.9,30.37,SW,228,4.0,5.0,33,0.00,,,0.00,Wunderground v.1.15,2013-01-06 15:32:00,
2013-01-06 08:34:00,26.2,1.0,30.36,SSW,200,4.0,5.0,33,0.00,,,0.00,Wunderground v.1.15,2013-01-06 15:34:00,
2013-01-06 08:37:00,26.5,1.2,30.36,South,184,4.0,5.0,33,0.00,,,0.00,Wunderground v.1.15,2013-01-06 15:37:00,
2013-01-06 08:39:00,26.7,1.4,30.37,SSW,205,4.0,5.0,33,0.00,,,0.00,Wunderground v.1.15,2013-01-06 15:39:00,
2013-01-06 08:42:00,27.4,0.7,30.36,SW,228,2.0,4.0,31,0.00,,,0.00,Wunderground v.1.15,2013-01-06 15:42:00,
2013-01-06 08:44:00,27.7,1.6,30.36,SSW,203,5.0,5.0,32,0.00,,,0.00,Wunderground v.1.15,2013-01-06 15:44:00,
2013-01-06 08:48:00,28.4,0.1,30.36,WSW,253,3.0,5.0,29,0.00,,,0.00,Wunderground v.1.15,2013-01-06 15:48:00,
2013-01-06 08:49:00,28.5,0.2,30.36,WSW,243,3.0,5.0,29,0.00,,,0.00,Wunderground v.1.15,2013-01-06 15:49:00,
2013-01-06 08:54:00,29.7,1.3,30.36,SSE,166,3.0,4.0,29,0.00,,,0.00,Wunderground v.1.15,2013-01-06 15:54:00,
2013-01-06 08:55:00,29.9,2.2,30.36,SSE,155,2.0,4.0,30,0.00,,,0.00,Wunderground v.1.15,2013-01-06 15:55:00,
2013-01-06 08:59:00,30.2,-0.6,30.36,South,191,2.0,4.0,26,0.00,,,0.00,Wunderground v.1.15,2013-01-06 15:59:00,
2013-01-06 09:00:00,30.3,-0.5,30.36,SSW,194,2.0,2.0,26,0.00,,,0.00,Wunderground v.1.15,2013-01-06 16:00:00,
2013-01-06 09:04:00,30.8,0.7,30.36,SW,233,2.0,2.0,27,0.00,,,0.00,Wunderground v.1.15,2013-01-06 16:04:00,
2013-01-06 09:05:00,30.9,0.8,30.36,SW,225,1.0,2.0,27,0.00,,,0.00,Wunderground v.1.15,2013-01-06 16:05:00,
2013-01-06 09:09:00,31.5,2.8,30.36,SSW,206,2.0,2.0,29,0.00,,,0.00,Wunderground v.1.15,2013-01-06 16:09:00,
2013-01-06 09:10:00,31.6,2.2,30.36,SSW,210,0.0,1.0,28,0.00,,,0.00,Wunderground v.1.15,2013-01-06 16:10:00,
2013-01-06 09:14:00,32.4,0.4,30.35,SSE,162,1.0,2.0,25,0.00,,,0.00,Wunderground v.1.15,2013-01-06 16:14:00,
2013-01-06 09:15:00,32.5,0.5,30.35,SW,221,1.0,2.0,25,0.00,,,0.00,Wunderground v.1.15,2013-01-06 16:15:00,
2013-01-06 09:16:00,32.6,1.4,30.35,SSW,201,1.0,2.0,26,0.00,,,0.00,Wunderground v.1.15,2013-01-06 16:16:00,
2013-01-06 09:19:00,33.2,1.1,30.35,SE,131,1.0,2.0,25,0.00,,,0.00,Wunderground v.1.15,2013-01-06 16:19:00,
2013-01-06 09:20:00,33.2,1.1,30.35,SE,139,1.0,1.0,25,0.00,,,0.00,Wunderground v.1.15,2013-01-06 16:20:00,
2013-01-06 09:21:00,33.4,0.4,30.35,SSE,158,1.0,2.0,24,0.00,,,0.00,Wunderground v.1.15,2013-01-06 16:21:00,
2013-01-06 09:24:00,33.9,0.8,30.35,SSW,200,1.0,2.0,24,0.00,,,0.00,Wunderground v.1.15,2013-01-06 16:24:00,
2013-01-06 09:25:00,34.0,0.9,30.35,SSE,148,1.0,2.0,24,0.00,,,0.00,Wunderground v.1.15,2013-01-06 16:25:00,
2013-01-06 09:26:00,34.1,1.0,30.35,SE,141,2.0,2.0,24,0.00,,,0.00,Wunderground v.1.15,2013-01-06 16:26:00,
2013-01-06 09:29:00,34.6,0.5,30.35,SE,136,0.0,2.0,23,0.00,,,0.00,Wunderground v.1.15,2013-01-06 16:29:00,
2013-01-06 09:30:00,34.7,0.6,30.35,SE,136,0.0,1.0,23,0.00,,,0.00,Wunderground v.1.15,2013-01-06 16:30:00,
2013-01-06 09:31:00,34.8,0.7,30.35,SE,136,0.0,1.0,23,0.00,,,0.00,Wunderground v.1.15,2013-01-06 16:31:00,
2013-01-06 09:35:00,35.1,0.0,30.35,SE,146,2.0,2.0,22,0.00,,,0.00,Wunderground v.1.15,2013-01-06 16:35:00,
2013-01-06 09:36:00,35.3,0.2,30.34,SE,139,2.0,2.0,22,0.00,,,0.00,Wunderground v.1.15,2013-01-06 16:36:00,
2013-01-06 09:40:00,36.0,2.6,30.34,SE,124,1.0,1.0,24,0.00,,,0.00,Wunderground v.1.15,2013-01-06 16:40:00,
2013-01-06 09:41:00,36.1,2.7,30.34,ESE,121,1.0,1.0,24,0.00,,,0.00,Wunderground v.1.15,2013-01-06 16:41:00,
2013-01-06 09:45:00,36.8,1.4,30.34,ESE,116,0.0,1.0,22,0.00,,,0.00,Wunderground v.1.15,2013-01-06 16:45:00,
2013-01-06 09:46:00,37.1,1.7,30.34,ESE,117,0.0,1.0,22,0.00,,,0.00,Wunderground v.1.15,2013-01-06 16:46:00,
2013-01-06 09:50:00,37.7,3.2,30.34,SE,139,0.0,1.0,23,0.00,,,0.00,Wunderground v.1.15,2013-01-06 16:50:00,
2013-01-06 09:51:00,37.9,3.3,30.34,SE,139,0.0,1.0,23,0.00,,,0.00,Wunderground v.1.15,2013-01-06 16:51:00,
2013-01-06 09:55:00,38.3,2.7,30.33,SE,136,1.0,2.0,22,0.00,,,0.00,Wunderground v.1.15,2013-01-06 16:55:00,
2013-01-06 09:56:00,38.4,2.8,30.33,East,99,2.0,3.0,22,0.00,,,0.00,Wunderground v.1.15,2013-01-06 16:56:00,
2013-01-06 10:01:00,38.9,2.2,30.33,ESE,104,3.0,3.0,21,0.00,,,0.00,Wunderground v.1.15,2013-01-06 17:01:00,
2013-01-06 10:02:00,38.9,2.2,30.33,ESE,117,2.0,4.0,21,0.00,,,0.00,Wunderground v.1.15,2013-01-06 17:02:00,
2013-01-06 10:06:00,39.1,2.4,30.33,SE,139,3.0,4.0,21,0.00,,,0.00,Wunderground v.1.15,2013-01-06 17:06:00,
2013-01-06 10:07:00,39.1,3.4,30.33,ESE,105,3.0,4.0,22,0.00,,,0.00,Wunderground v.1.15,2013-01-06 17:07:00,
2013-01-06 10:11:00,39.4,1.6,30.33,ENE,76,2.0,5.0,20,0.00,,,0.00,Wunderground v.1.15,2013-01-06 17:11:00,
2013-01-06 10:12:00,39.5,2.7,30.33,East,92,3.0,5.0,21,0.00,,,0.00,Wunderground v.1.15,2013-01-06 17:12:00,
2013-01-06 10:16:00,39.8,3.0,30.33,ENE,73,2.0,5.0,21,0.00,,,0.00,Wunderground v.1.15,2013-01-06 17:16:00,
2013-01-06 10:17:00,39.8,3.0,30.33,East,82,1.0,5.0,21,0.00,,,0.00,Wunderground v.1.15,2013-01-06 17:17:00,
2013-01-06 10:21:00,39.6,5.7,30.32,ESE,104,1.0,4.0,24,0.00,,,0.00,Wunderground v.1.15,2013-01-06 17:21:00,
2013-01-06 10:22:00,39.6,5.7,30.32,ESE,104,3.0,4.0,24,0.00,,,0.00,Wunderground v.1.15,2013-01-06 17:22:00,
2013-01-06 10:23:00,39.5,6.5,30.32,East,94,1.0,4.0,25,0.00,,,0.00,Wunderground v.1.15,2013-01-06 17:23:00,
2013-01-06 10:27:00,39.2,5.4,30.32,SE,124,1.0,4.0,24,0.00,,,0.00,Wunderground v.1.15,2013-01-06 17:27:00,
2013-01-06 10:28:00,39.2,6.3,30.32,ESE,122,0.0,4.0,25,0.00,,,0.00,Wunderground v.1.15,2013-01-06 17:28:00,
2013-01-06 10:32:00,39.3,6.3,30.32,NNE,27,0.0,4.0,25,0.00,,,0.00,Wunderground v.1.15,2013-01-06 17:32:00,
2013-01-06 10:33:00,39.3,5.5,30.32,ENE,67,2.0,4.0,24,0.00,,,0.00,Wunderground v.1.15,2013-01-06 17:33:00,
2013-01-06 10:37:00,39.1,7.0,30.31,NNE,33,0.0,4.0,26,0.00,,,0.00,Wunderground v.1.15,2013-01-06 17:37:00,
2013-01-06 10:38:00,39.1,7.0,30.31,NE,38,1.0,4.0,26,0.00,,,0.00,Wunderground v.1.15,2013-01-06 17:38:00,
2013-01-06 10:42:00,38.7,9.9,30.31,ENE,74,3.0,5.0,30,0.00,,,0.00,Wunderground v.1.15,2013-01-06 17:42:00,
2013-01-06 10:43:00,38.7,10.6,30.31,ENE,60,2.0,5.0,31,0.00,,,0.00,Wunderground v.1.15,2013-01-06 17:43:00,
2013-01-06 10:47:00,37.8,11.2,30.31,NNE,26,5.0,6.0,33,0.00,,,0.00,Wunderground v.1.15,2013-01-06 17:47:00,
2013-01-06 10:48:00,37.8,11.2,30.31,NNE,31,4.0,6.0,33,0.00,,,0.00,Wunderground v.1.15,2013-01-06 17:48:00,
2013-01-06 10:53:00,37.3,10.8,30.30,NE,40,6.0,6.0,33,0.00,,,0.00,Wunderground v.1.15,2013-01-06 17:53:00,
2013-01-06 10:58:00,37.2,11.4,30.30,NNE,18,2.0,6.0,34,0.00,,,0.00,Wunderground v.1.15,2013-01-06 17:58:00,
2013-01-06 11:03:00,37.3,12.7,30.29,NE,42,3.0,5.0,36,0.00,,,0.00,Wunderground v.1.15,2013-01-06 18:03:00,
2013-01-06 11:08:00,37.7,12.5,30.29,East,90,1.0,5.0,35,0.00,,,0.00,Wunderground v.1.15,2013-01-06 18:08:00,
2013-01-06 11:13:00,38.1,12.2,30.28,NE,47,1.0,3.0,34,0.00,,,0.00,Wunderground v.1.15,2013-01-06 18:13:00,
2013-01-06 11:14:00,38.1,12.8,30.28,NE,45,1.0,3.0,35,0.00,,,0.00,Wunderground v.1.15,2013-01-06 18:14:00,
2013-01-06 11:18:00,38.6,12.6,30.27,ESE,108,0.0,3.0,34,0.00,,,0.00,Wunderground v.1.15,2013-01-06 18:18:00,
2013-01-06 11:19:00,38.6,12.6,30.27,NE,40,3.0,3.0,34,0.00,,,0.00,Wunderground v.1.15,2013-01-06 18:19:00,
2013-01-06 11:23:00,38.9,12.2,30.27,ENE,63,1.0,3.0,33,0.00,,,0.00,Wunderground v.1.15,2013-01-06 18:23:00,
2013-01-06 11:24:00,38.9,12.2,30.27,ENE,65,0.0,3.0,33,0.00,,,0.00,Wunderground v.1.15,2013-01-06 18:24:00,
2013-01-06 11:28:00,39.3,12.6,30.26,NNE,30,1.0,3.0,33,0.00,,,0.00,Wunderground v.1.15,2013-01-06 18:28:00,
2013-01-06 11:29:00,39.3,12.6,30.26,NNE,30,1.0,3.0,33,0.00,,,0.00,Wunderground v.1.15,2013-01-06 18:29:00,
2013-01-06 11:33:00,39.4,12.6,30.26,NE,44,3.0,3.0,33,0.00,,,0.00,Wunderground v.1.15,2013-01-06 18:33:00,
2013-01-06 11:34:00,39.4,11.9,30.26,NE,51,2.0,3.0,32,0.00,,,0.00,Wunderground v.1.15,2013-01-06 18:34:00,
2013-01-06 11:38:00,39.4,11.9,30.26,NE,53,2.0,5.0,32,0.00,,,0.00,Wunderground v.1.15,2013-01-06 18:38:00,
2013-01-06 11:39:00,39.4,11.2,30.26,NNE,23,3.0,5.0,31,0.00,,,0.00,Wunderground v.1.15,2013-01-06 18:39:00,
2013-01-06 11:44:00,39.4,11.2,30.25,NE,37,4.0,7.0,31,0.00,,,0.00,Wunderground v.1.15,2013-01-06 18:44:00,
2013-01-06 11:49:00,39.3,12.6,30.25,NE,34,3.0,7.0,33,0.00,,,0.00,Wunderground v.1.15,2013-01-06 18:49:00,
2013-01-06 11:54:00,39.6,12.8,30.24,NE,49,1.0,3.0,33,0.00,,,0.00,Wunderground v.1.15,2013-01-06 18:54:00,
2013-01-06 11:55:00,39.7,12.2,30.24,East,79,1.0,3.0,32,0.00,,,0.00,Wunderground v.1.15,2013-01-06 18:55:00,
2013-01-06 11:59:00,39.8,12.3,30.24,East,86,1.0,4.0,32,0.00,,,0.00,Wunderground v.1.15,2013-01-06 18:59:00,
2013-01-06 12:00:00,39.7,12.2,30.24,East,88,0.0,1.0,32,0.00,,,0.00,Wunderground v.1.15,2013-01-06 19:00:00,
2013-01-06 12:04:00,39.9,12.4,30.24,NNE,25,5.0,6.0,32,0.00,,,0.00,Wunderground v.1.15,2013-01-06 19:04:00,
2013-01-06 12:05:00,39.9,13.1,30.23,ENE,75,4.0,6.0,33,0.00,,,0.00,Wunderground v.1.15,2013-01-06 19:05:00,
2013-01-06 12:09:00,39.9,12.4,30.23,ENE,78,4.0,6.0,32,0.00,,,0.00,Wunderground v.1.15,2013-01-06 19:09:00,
2013-01-06 12:10:00,39.8,12.3,30.23,East,88,3.0,4.0,32,0.00,,,0.00,Wunderground v.1.15,2013-01-06 19:10:00,
2013-01-06 12:14:00,39.5,12.7,30.23,East,89,3.0,4.0,33,0.00,,,0.00,Wunderground v.1.15,2013-01-06 19:14:00,
2013-01-06 12:15:00,39.4,12.6,30.23,East,79,2.0,5.0,33,0.00,,,0.00,Wunderground v.1.15,2013-01-06 19:15:00,
2013-01-06 12:19:00,39.2,12.5,30.22,East,94,4.0,5.0,33,0.00,,,0.00,Wunderground v.1.15,2013-01-06 19:19:00,
2013-01-06 12:20:00,39.1,12.4,30.22,East,93,3.0,5.0,33,0.00,,,0.00,Wunderground v.1.15,2013-01-06 19:20:00,
2013-01-06 12:21:00,39.1,12.4,30.22,ENE,68,2.0,5.0,33,0.00,,,0.00,Wunderground v.1.15,2013-01-06 19:21:00,
2013-01-06 12:24:00,39.0,12.3,30.22,East,92,2.0,5.0,33,0.00,,,0.00,Wunderground v.1.15,2013-01-06 19:24:00,
2013-01-06 12:25:00,39.0,12.3,30.22,NNE,15,6.0,6.0,33,0.00,,,0.00,Wunderground v.1.15,2013-01-06 19:25:00,
2013-01-06 12:26:00,39.0,12.3,30.22,NNE,30,4.0,6.0,33,0.00,,,0.00,Wunderground v.1.15,2013-01-06 19:26:00,
2013-01-06 12:30:00,38.6,11.9,30.22,NNE,33,3.0,3.0,33,0.00,,,0.00,Wunderground v.1.15,2013-01-06 19:30:00,
2013-01-06 12:31:00,38.5,12.5,30.22,NNE,33,4.0,4.0,34,0.00,,,0.00,Wunderground v.1.15,2013-01-06 19:31:00,
2013-01-06 12:35:00,38.3,11.7,30.21,NNE,33,3.0,4.0,33,0.00,,,0.00,Wunderground v.1.15,2013-01-06 19:35:00,
2013-01-06 12:36:00,38.3,11.7,30.21,NNE,16,1.0,4.0,33,0.00,,,0.00,Wunderground v.1.15,2013-01-06 19:36:00,
2013-01-06 12:40:00,38.4,12.4,30.21,NE,42,6.0,6.0,34,0.00,,,0.00,Wunderground v.1.15,2013-01-06 19:40:00,
2013-01-06 12:41:00,38.4,11.8,30.21,NNE,26,4.0,6.0,33,0.00,,,0.00,Wunderground v.1.15,2013-01-06 19:41:00,
2013-01-06 12:46:00,38.6,11.9,30.21,East,85,2.0,6.0,33,0.00,,,0.00,Wunderground v.1.15,2013-01-06 19:46:00,
2013-01-06 12:51:00,38.9,12.2,30.20,NE,56,1.0,3.0,33,0.00,,,0.00,Wunderground v.1.15,2013-01-06 19:51:00,
2013-01-06 12:52:00,39.0,12.3,30.20,NE,37,2.0,3.0,33,0.00,,,0.00,Wunderground v.1.15,2013-01-06 19:52:00,
2013-01-06 12:56:00,39.3,11.1,30.20,SSE,155,0.0,3.0,31,0.00,,,0.00,Wunderground v.1.15,2013-01-06 19:56:00,
2013-01-06 12:57:00,39.4,11.2,30.20,SSE,155,0.0,3.0,31,0.00,,,0.00,Wunderground v.1.15,2013-01-06 19:57:00,
2013-01-06 13:01:00,40.0,11.8,30.20,East,89,0.0,1.0,31,0.00,,,0.00,Wunderground v.1.15,2013-01-06 20:01:00,
2013-01-06 13:02:00,40.1,12.6,30.19,East,89,0.0,1.0,32,0.00,,,0.00,Wunderground v.1.15,2013-01-06 20:02:00,
2013-01-06 13:06:00,40.5,11.4,30.19,NNE,33,3.0,3.0,30,0.00,,,0.00,Wunderground v.1.15,2013-01-06 20:06:00,
2013-01-06 13:07:00,40.6,10.8,30.19,NNE,33,2.0,3.0,29,0.00,,,0.00,Wunderground v.1.15,2013-01-06 20:07:00,
2013-01-06 13:11:00,40.7,10.9,30.19,East,85,1.0,2.0,29,0.00,,,0.00,Wunderground v.1.15,2013-01-06 20:11:00,
2013-01-06 13:13:00,40.9,11.0,30.19,East,87,1.0,2.0,29,0.00,,,0.00,Wunderground v.1.15,2013-01-06 20:13:00,
2013-01-06 13:16:00,41.3,10.6,30.19,East,91,0.0,2.0,28,0.00,,,0.00,Wunderground v.1.15,2013-01-06 20:16:00,
2013-01-06 13:18:00,41.8,11.8,30.19,East,92,0.0,2.0,29,0.00,,,0.00,Wunderground v.1.15,2013-01-06 20:18:00,
2013-01-06 13:21:00,42.8,11.1,30.19,East,90,0.0,1.0,27,0.00,,,0.00,Wunderground v.1.15,2013-01-06 20:21:00,
2013-01-06 13:23:00,43.0,11.2,30.18,NE,37,2.0,3.0,27,0.00,,,0.00,Wunderground v.1.15,2013-01-06 20:23:00,
2013-01-06 13:26:00,42.8,10.2,30.18,NNE,30,1.0,4.0,26,0.00,,,0.00,Wunderground v.1.15,2013-01-06 20:26:00,
2013-01-06 13:28:00,42.8,10.2,30.18,North,358,1.0,4.0,26,0.00,,,0.00,Wunderground v.1.15,2013-01-06 20:28:00,
2013-01-06 13:31:00,43.3,11.5,30.18,North,353,0.0,1.0,27,0.00,,,0.00,Wunderground v.1.15,2013-01-06 20:31:00,
2013-01-06 13:33:00,43.7,11.0,30.18,North,356,0.0,1.0,26,0.00,,,0.00,Wunderground v.1.15,2013-01-06 20:33:00,
2013-01-06 13:36:00,44.6,10.9,30.18,ESE,103,1.0,1.0,25,0.00,,,0.00,Wunderground v.1.15,2013-01-06 20:36:00,
2013-01-06 13:37:00,44.7,10.1,30.18,East,84,2.0,2.0,24,0.00,,,0.00,Wunderground v.1.15,2013-01-06 20:37:00,
2013-01-06 13:38:00,44.7,9.1,30.18,East,83,1.0,2.0,23,0.00,,,0.00,Wunderground v.1.15,2013-01-06 20:38:00,
2013-01-06 13:41:00,44.8,10.1,30.17,East,93,2.0,2.0,24,0.00,,,0.00,Wunderground v.1.15,2013-01-06 20:41:00,
2013-01-06 13:42:00,44.9,10.2,30.17,East,90,1.0,3.0,24,0.00,,,0.00,Wunderground v.1.15,2013-01-06 20:42:00,
2013-01-06 13:43:00,44.8,9.2,30.17,East,79,2.0,3.0,23,0.00,,,0.00,Wunderground v.1.15,2013-01-06 20:43:00,
2013-01-06 13:47:00,44.6,7.0,30.17,NNE,22,3.0,4.0,21,0.00,,,0.00,Wunderground v.1.15,2013-01-06 20:47:00,
2013-01-06 13:48:00,44.5,6.9,30.17,ENE,64,1.0,4.0,21,0.00,,,0.00,Wunderground v.1.15,2013-01-06 20:48:00,
2013-01-06 13:52:00,44.4,6.8,30.17,NNE,15,3.0,5.0,21,0.00,,,0.00,Wunderground v.1.15,2013-01-06 20:52:00,
2013-01-06 13:53:00,44.2,6.7,30.16,NNE,27,3.0,5.0,21,0.00,,,0.00,Wunderground v.1.15,2013-01-06 20:53:00,
2013-01-06 13:57:00,44.2,5.6,30.16,NE,51,2.0,5.0,20,0.00,,,0.00,Wunderground v.1.15,2013-01-06 20:57:00,
2013-01-06 13:58:00,44.2,5.6,30.16,NE,37,3.0,5.0,20,0.00,,,0.00,Wunderground v.1.15,2013-01-06 20:58:00,
2013-01-06 14:00:00,44.1,4.4,30.16,NE,37,1.0,2.0,19,0.00,,,0.00,Wunderground v.1.15,2013-01-06 21:00:00,
2013-01-06 14:02:00,44.1,5.5,30.16,NE,44,0.0,2.0,20,0.00,,,0.00,Wunderground v.1.15,2013-01-06 21:02:00,
2013-01-06 14:03:00,44.2,6.7,30.16,NE,44,0.0,2.0,21,0.00,,,0.00,Wunderground v.1.15,2013-01-06 21:03:00,
2013-01-06 14:05:00,44.3,5.7,30.16,NNE,26,2.0,3.0,20,0.00,,,0.00,Wunderground v.1.15,2013-01-06 21:05:00,
2013-01-06 14:07:00,44.3,5.7,30.16,NNE,27,0.0,3.0,20,0.00,,,0.00,Wunderground v.1.15,2013-01-06 21:07:00,
2013-01-06 14:08:00,44.5,5.8,30.16,NNE,27,0.0,3.0,20,0.00,,,0.00,Wunderground v.1.15,2013-01-06 21:08:00,
2013-01-06 14:10:00,45.0,6.3,30.15,NNE,26,0.0,1.0,20,0.00,,,0.00,Wunderground v.1.15,2013-01-06 21:10:00,
2013-01-06 14:12:00,45.7,6.8,30.15,NNE,26,0.0,1.0,20,0.00,,,0.00,Wunderground v.1.15,2013-01-06 21:12:00,
2013-01-06 14:13:00,46.0,7.1,30.15,NE,43,2.0,3.0,20,0.00,,,0.00,Wunderground v.1.15,2013-01-06 21:13:00,
2013-01-06 14:15:00,45.8,6.9,30.15,East,79,1.0,3.0,20,0.00,,,0.00,Wunderground v.1.15,2013-01-06 21:15:00,
2013-01-06 14:17:00,45.6,5.6,30.16,East,79,0.0,3.0,19,0.00,,,0.00,Wunderground v.1.15,2013-01-06 21:17:00,
2013-01-06 14:18:00,45.6,6.8,30.16,East,81,0.0,3.0,20,0.00,,,0.00,Wunderground v.1.15,2013-01-06 21:18:00,
2013-01-06 14:19:00,45.7,6.8,30.16,East,79,0.0,3.0,20,0.00,,,0.00,Wunderground v.1.15,2013-01-06 21:19:00,
2013-01-06 14:21:00,46.0,8.2,30.16,East,80,0.0,1.0,21,0.00,,,0.00,Wunderground v.1.15,2013-01-06 21:21:00,
2013-01-06 14:22:00,46.4,8.5,30.15,NE,35,1.0,1.0,21,0.00,,,0.00,Wunderground v.1.15,2013-01-06 21:22:00,
2013-01-06 14:23:00,46.5,7.5,30.16,NE,37,0.0,1.0,20,0.00,,,0.00,Wunderground v.1.15,2013-01-06 21:23:00,
2013-01-06 14:24:00,46.6,7.6,30.16,NE,37,0.0,1.0,20,0.00,,,0.00,Wunderground v.1.15,2013-01-06 21:24:00,
2013-01-06 14:26:00,46.6,7.6,30.15,NE,37,0.0,1.0,20,0.00,,,0.00,Wunderground v.1.15,2013-01-06 21:26:00,
2013-01-06 14:27:00,46.7,7.7,30.15,NE,37,0.0,1.0,20,0.00,,,0.00,Wunderground v.1.15,2013-01-06 21:27:00,
2013-01-06 14:28:00,46.7,7.7,30.15,NE,37,1.0,1.0,20,0.00,,,0.00,Wunderground v.1.15,2013-01-06 21:28:00,
2013-01-06 14:29:00,46.7,7.7,30.15,NE,37,0.0,1.0,20,0.00,,,0.00,Wunderground v.1.15,2013-01-06 21:29:00,
2013-01-06 14:32:00,46.5,9.6,30.15,NE,37,0.0,1.0,22,0.00,,,0.00,Wunderground v.1.15,2013-01-06 21:32:00,
2013-01-06 14:33:00,46.5,9.6,30.15,NE,37,0.0,1.0,22,0.00,,,0.00,Wunderground v.1.15,2013-01-06 21:33:00,
2013-01-06 14:34:00,46.5,9.6,30.15,NE,37,0.0,1.0,22,0.00,,,0.00,Wunderground v.1.15,2013-01-06 21:34:00,
2013-01-06 14:37:00,46.2,9.4,30.15,East,92,0.0,1.0,22,0.00,,,0.00,Wunderground v.1.15,2013-01-06 21:37:00,
2013-01-06 14:38:00,46.1,9.3,30.15,East,95,0.0,1.0,22,0.00,,,0.00,Wunderground v.1.15,2013-01-06 21:38:00,
2013-01-06 14:40:00,45.9,10.1,30.15,East,88,0.0,0.0,23,0.00,,,0.00,Wunderground v.1.15,2013-01-06 21:40:00,
2013-01-06 14:42:00,45.6,10.8,30.15,East,88,0.0,0.0,24,0.00,,,0.00,Wunderground v.1.15,2013-01-06 21:42:00,
2013-01-06 14:43:00,45.6,10.8,30.15,East,87,0.0,0.0,24,0.00,,,0.00,Wunderground v.1.15,2013-01-06 21:43:00,
2013-01-06 14:45:00,45.6,9.9,30.15,East,87,0.0,0.0,23,0.00,,,0.00,Wunderground v.1.15,2013-01-06 21:45:00,
2013-01-06 14:47:00,45.5,8.8,30.15,East,86,0.0,1.0,22,0.00,,,0.00,Wunderground v.1.15,2013-01-06 21:47:00,
2013-01-06 14:48:00,45.5,8.8,30.15,NNE,33,2.0,2.0,22,0.00,,,0.00,Wunderground v.1.15,2013-01-06 21:48:00,
2013-01-06 14:49:00,45.4,8.7,30.15,NNE,30,2.0,3.0,22,0.00,,,0.00,Wunderground v.1.15,2013-01-06 21:49:00,
2013-01-06 14:50:00,45.3,8.6,30.15,NNE,33,3.0,3.0,22,0.00,,,0.00,Wunderground v.1.15,2013-01-06 21:50:00,
2013-01-06 14:52:00,45.0,8.4,30.15,NE,37,4.0,4.0,22,0.00,,,0.00,Wunderground v.1.15,2013-01-06 21:52:00,
2013-01-06 14:53:00,44.8,8.2,30.15,NNE,30,3.0,5.0,22,0.00,,,0.00,Wunderground v.1.15,2013-01-06 21:53:00,
2013-01-06 14:54:00,44.7,9.1,30.15,NNE,30,4.0,5.0,23,0.00,,,0.00,Wunderground v.1.15,2013-01-06 21:54:00,
2013-01-06 14:55:00,44.5,8.9,30.14,NNE,33,2.0,5.0,23,0.00,,,0.00,Wunderground v.1.15,2013-01-06 21:55:00,
2013-01-06 14:57:00,44.4,10.7,30.15,NNE,27,2.0,5.0,25,0.00,,,0.00,Wunderground v.1.15,2013-01-06 21:57:00,
2013-01-06 14:58:00,44.4,11.6,30.15,NE,51,1.0,5.0,26,0.00,,,0.00,Wunderground v.1.15,2013-01-06 21:58:00,
2013-01-06 14:59:00,44.4,10.7,30.15,NE,56,0.0,5.0,25,0.00,,,0.00,Wunderground v.1.15,2013-01-06 21:59:00,
2013-01-06 15:00:00,44.4,11.6,30.15,ENE,60,0.0,3.0,26,0.00,,,0.00,Wunderground v.1.15,2013-01-06 22:00:00,
2013-01-06 15:02:00,44.5,10.8,30.15,East,83,0.0,3.0,25,0.00,,,0.00,Wunderground v.1.15,2013-01-06 22:02:00,
2013-01-06 15:03:00,44.5,10.8,30.14,East,85,0.0,3.0,25,0.00,,,0.00,Wunderground v.1.15,2013-01-06 22:03:00,
2013-01-06 15:04:00,44.4,10.7,30.14,East,85,0.0,3.0,25,0.00,,,0.00,Wunderground v.1.15,2013-01-06 22:04:00,
2013-01-06 15:05:00,44.4,10.7,30.14,East,85,0.0,3.0,25,0.00,,,0.00,Wunderground v.1.15,2013-01-06 22:05:00,
2013-01-06 15:07:00,44.6,12.6,30.15,East,83,0.0,3.0,27,0.00,,,0.00,Wunderground v.1.15,2013-01-06 22:07:00,
2013-01-06 15:08:00,44.8,10.1,30.15,East,84,0.0,3.0,24,0.00,,,0.00,Wunderground v.1.15,2013-01-06 22:08:00,
2013-01-06 15:09:00,44.9,8.3,30.15,East,84,0.0,3.0,22,0.00,,,0.00,Wunderground v.1.15,2013-01-06 22:09:00,
2013-01-06 15:10:00,45.0,8.4,30.15,East,84,0.0,0.0,22,0.00,,,0.00,Wunderground v.1.15,2013-01-06 22:10:00,
2013-01-06 15:12:00,45.2,9.5,30.15,NNE,20,2.0,2.0,23,0.00,,,0.00,Wunderground v.1.15,2013-01-06 22:12:00,
2013-01-06 15:13:00,45.2,9.5,30.15,NNE,20,1.0,2.0,23,0.00,,,0.00,Wunderground v.1.15,2013-01-06 22:13:00,
2013-01-06 15:14:00,45.2,10.5,30.14,NNE,20,0.0,2.0,24,0.00,,,0.00,Wunderground v.1.15,2013-01-06 22:14:00,
2013-01-06 15:15:00,45.2,12.3,30.14,NNE,22,0.0,2.0,26,0.00,,,0.00,Wunderground v.1.15,2013-01-06 22:15:00,
2013-01-06 15:18:00,45.2,10.5,30.14,NNE,32,0.0,2.0,24,0.00,,,0.00,Wunderground v.1.15,2013-01-06 22:18:00,
2013-01-06 15:19:00,45.1,10.4,30.14,North,8,2.0,4.0,24,0.00,,,0.00,Wunderground v.1.15,2013-01-06 22:19:00,
2013-01-06 15:20:00,44.9,11.1,30.15,NNW,342,3.0,3.0,25,0.00,,,0.00,Wunderground v.1.15,2013-01-06 22:20:00,
2013-01-06 15:23:00,44.5,9.9,30.14,NNW,335,4.0,5.0,24,0.00,,,0.00,Wunderground v.1.15,2013-01-06 22:23:00,
2013-01-06 15:24:00,44.1,9.5,30.14,NW,314,1.0,5.0,24,0.00,,,0.00,Wunderground v.1.15,2013-01-06 22:24:00,
2013-01-06 15:25:00,43.8,10.2,30.14,NW,315,0.0,5.0,25,0.00,,,0.00,Wunderground v.1.15,2013-01-06 22:25:00,
2013-01-06 15:28:00,43.7,10.1,30.14,NW,314,0.0,5.0,25,0.00,,,0.00,Wunderground v.1.15,2013-01-06 22:28:00,
2013-01-06 15:29:00,43.6,10.9,30.14,NW,315,0.0,5.0,26,0.00,,,0.00,Wunderground v.1.15,2013-01-06 22:29:00,
2013-01-06 15:30:00,43.6,10.9,30.14,NW,314,0.0,2.0,26,0.00,,,0.00,Wunderground v.1.15,2013-01-06 22:30:00,
2013-01-06 15:33:00,43.6,10.9,30.14,NW,315,0.0,2.0,26,0.00,,,0.00,Wunderground v.1.15,2013-01-06 22:33:00,
2013-01-06 15:34:00,43.5,9.9,30.14,NW,314,0.0,2.0,25,0.00,,,0.00,Wunderground v.1.15,2013-01-06 22:34:00,
2013-01-06 15:36:00,43.3,9.8,30.14,NW,314,0.0,2.0,25,0.00,,,0.00,Wunderground v.1.15,2013-01-06 22:36:00,
2013-01-06 15:38:00,43.1,9.6,30.15,SSE,158,1.0,2.0,25,0.00,,,0.00,Wunderground v.1.15,2013-01-06 22:38:00,
2013-01-06 15:39:00,42.9,9.4,30.14,SSE,158,0.0,2.0,25,0.00,,,0.00,Wunderground v.1.15,2013-01-06 22:39:00,
2013-01-06 15:41:00,42.8,9.3,30.15,SSE,158,0.0,0.0,25,0.00,,,0.00,Wunderground v.1.15,2013-01-06 22:41:00,
2013-01-06 15:43:00,42.5,9.1,30.14,SSE,158,0.0,0.0,25,0.00,,,0.00,Wunderground v.1.15,2013-01-06 22:43:00,
2013-01-06 15:44:00,42.3,9.8,30.14,SSE,158,0.0,0.0,26,0.00,,,0.00,Wunderground v.1.15,2013-01-06 22:44:00,
2013-01-06 15:46:00,41.8,9.4,30.14,WSW,257,0.0,0.0,26,0.00,,,0.00,Wunderground v.1.15,2013-01-06 22:46:00,
2013-01-06 15:48:00,41.4,9.0,30.14,WSW,250,2.0,2.0,26,0.00,,,0.00,Wunderground v.1.15,2013-01-06 22:48:00,
2013-01-06 15:49:00,41.2,10.5,30.14,WSW,255,5.0,5.0,28,0.00,,,0.00,Wunderground v.1.15,2013-01-06 22:49:00,
2013-01-06 15:50:00,41.0,10.3,30.14,WSW,256,5.0,5.0,28,0.00,,,0.00,Wunderground v.1.15,2013-01-06 22:50:00,
2013-01-06 15:51:00,40.4,11.4,30.14,WSW,253,3.0,5.0,30,0.00,,,0.00,Wunderground v.1.15,2013-01-06 22:51:00,
2013-01-06 15:53:00,39.9,10.9,30.14,SSW,196,2.0,5.0,30,0.00,,,0.00,Wunderground v.1.15,2013-01-06 22:53:00,
2013-01-06 15:54:00,39.5,10.6,30.14,SSW,198,2.0,5.0,30,0.00,,,0.00,Wunderground v.1.15,2013-01-06 22:54:00,
2013-01-06 15:55:00,39.5,10.6,30.14,SSW,208,3.0,5.0,30,0.00,,,0.00,Wunderground v.1.15,2013-01-06 22:55:00,
2013-01-06 15:57:00,39.2,10.3,30.14,WSW,243,2.0,5.0,30,0.00,,,0.00,Wunderground v.1.15,2013-01-06 22:57:00,
2013-01-06 15:59:00,39.1,11.0,30.14,WSW,253,2.0,5.0,31,0.00,,,0.00,Wunderground v.1.15,2013-01-06 22:59:00,
2013-01-06 16:00:00,39.0,10.9,30.14,SSE,160,2.0,3.0,31,0.00,,,0.00,Wunderground v.1.15,2013-01-06 23:00:00,
2013-01-06 16:02:00,38.8,11.4,30.14,SSW,197,4.0,5.0,32,0.00,,,0.00,Wunderground v.1.15,2013-01-06 23:02:00,
2013-01-06 16:04:00,38.7,9.9,30.14,SW,224,4.0,5.0,30,0.00,,,0.00,Wunderground v.1.15,2013-01-06 23:04:00,
2013-01-06 16:05:00,38.6,10.5,30.14,SW,231,2.0,5.0,31,0.00,,,0.00,Wunderground v.1.15,2013-01-06 23:05:00,
2013-01-06 16:07:00,38.3,11.7,30.14,WSW,248,3.0,5.0,33,0.00,,,0.00,Wunderground v.1.15,2013-01-06 23:07:00,
2013-01-06 16:10:00,38.0,12.1,30.13,WSW,248,3.0,3.0,34,0.00,,,0.00,Wunderground v.1.15,2013-01-06 23:10:00,
2013-01-06 16:11:00,37.8,12.6,30.13,WSW,250,3.0,4.0,35,0.00,,,0.00,Wunderground v.1.15,2013-01-06 23:11:00,
2013-01-06 16:13:00,37.4,12.2,30.13,West,259,4.0,5.0,35,0.00,,,0.00,Wunderground v.1.15,2013-01-06 23:13:00,
2013-01-06 16:16:00,36.9,13.0,30.13,West,262,3.0,5.0,37,0.00,,,0.00,Wunderground v.1.15,2013-01-06 23:16:00,
2013-01-06 16:17:00,36.7,12.8,30.13,SW,221,3.0,5.0,37,0.00,,,0.00,Wunderground v.1.15,2013-01-06 23:17:00,
2013-01-06 16:18:00,36.7,13.4,30.13,WSW,240,4.0,5.0,38,0.00,,,0.00,Wunderground v.1.15,2013-01-06 23:18:00,
2013-01-06 16:21:00,36.9,13.6,30.13,SSW,201,1.0,4.0,38,0.00,,,0.00,Wunderground v.1.15,2013-01-06 23:21:00,
2013-01-06 16:23:00,36.9,13.6,30.13,South,188,2.0,4.0,38,0.00,,,0.00,Wunderground v.1.15,2013-01-06 23:23:00,
2013-01-06 16:25:00,36.9,14.2,30.13,South,173,4.0,5.0,39,0.00,,,0.00,Wunderground v.1.15,2013-01-06 23:25:00,
2013-01-06 16:27:00,36.9,15.4,30.13,SW,221,4.0,5.0,41,0.00,,,0.00,Wunderground v.1.15,2013-01-06 23:27:00,
2013-01-06 16:28:00,36.9,15.4,30.13,SW,214,4.0,5.0,41,0.00,,,0.00,Wunderground v.1.15,2013-01-06 23:28:00,
2013-01-06 16:30:00,36.7,17.3,30.13,SSW,211,3.0,3.0,45,0.00,,,0.00,Wunderground v.1.15,2013-01-06 23:30:00,
2013-01-06 16:32:00,36.7,14.0,30.13,WSW,243,2.0,4.0,39,0.00,,,0.00,Wunderground v.1.15,2013-01-06 23:32:00,
2013-01-06 16:34:00,36.5,13.9,30.13,WSW,257,3.0,4.0,39,0.00,,,0.00,Wunderground v.1.15,2013-01-06 23:34:00,
2013-01-06 16:36:00,36.4,13.8,30.13,SW,221,2.0,4.0,39,0.00,,,0.00,Wunderground v.1.15,2013-01-06 23:36:00,
2013-01-06 16:38:00,36.0,12.8,30.13,West,267,4.0,4.0,38,0.00,,,0.00,Wunderground v.1.15,2013-01-06 23:38:00,
2013-01-06 16:39:00,36.0,12.8,30.13,WSW,249,6.0,6.0,38,0.00,,,0.00,Wunderground v.1.15,2013-01-06 23:39:00,
2013-01-06 16:41:00,35.7,13.1,30.13,WSW,250,4.0,5.0,39,0.00,,,0.00,Wunderground v.1.15,2013-01-06 23:41:00,
2013-01-06 16:42:00,35.7,12.5,30.13,WSW,243,2.0,5.0,38,0.00,,,0.00,Wunderground v.1.15,2013-01-06 23:42:00,
2013-01-06 16:44:00,35.4,12.3,30.13,SSW,200,3.0,5.0,38,0.00,,,0.00,Wunderground v.1.15,2013-01-06 23:44:00,
2013-01-06 16:46:00,35.2,12.7,30.13,SW,231,1.0,5.0,39,0.00,,,0.00,Wunderground v.1.15,2013-01-06 23:46:00,
2013-01-06 16:47:00,35.1,12.6,30.13,SSW,211,3.0,5.0,39,0.00,,,0.00,Wunderground v.1.15,2013-01-06 23:47:00,
2013-01-06 16:49:00,34.9,11.8,30.13,SW,222,4.0,6.0,38,0.00,,,0.00,Wunderground v.1.15,2013-01-06 23:49:00,
2013-01-06 16:51:00,34.6,12.1,30.13,WSW,246,2.0,4.0,39,0.00,,,0.00,Wunderground v.1.15,2013-01-06 23:51:00,
2013-01-06 16:52:00,34.6,11.6,30.13,SSW,200,2.0,4.0,38,0.00,,,0.00,Wunderground v.1.15,2013-01-06 23:52:00,
2013-01-06 16:54:00,34.4,10.8,30.13,WSW,256,5.0,6.0,37,0.00,,,0.00,Wunderground v.1.15,2013-01-06 23:54:00,
2013-01-06 16:57:00,34.4,10.8,30.13,WSW,246,4.0,6.0,37,0.00,,,0.00,Wunderground v.1.15,2013-01-06 23:57:00,
2013-01-06 16:59:00,34.1,10.5,30.13,West,262,6.0,6.0,37,0.00,,,0.00,Wunderground v.1.15,2013-01-06 23:59:00,
2013-01-06 17:00:00,34.1,10.5,30.13,WSW,257,5.0,5.0,37,0.00,,,0.00,Wunderground v.1.15,2013-01-07 00:00:00,
2013-01-06 17:02:00,33.9,10.3,30.13,SW,222,4.0,5.0,37,0.00,,,0.00,Wunderground v.1.15,2013-01-07 00:02:00,
2013-01-06 17:05:00,33.7,11.3,30.13,WSW,243,1.0,5.0,39,0.00,,,0.00,Wunderground v.1.15,2013-01-07 00:05:00,
2013-01-06 17:07:00,33.6,10.1,30.12,WSW,255,5.0,6.0,37,0.00,,,0.00,Wunderground v.1.15,2013-01-07 00:07:00,
2013-01-06 17:10:00,33.4,9.9,30.12,WSW,255,5.0,5.0,37,0.00,,,0.00,Wunderground v.1.15,2013-01-07 00:10:00,
2013-01-06 17:12:00,33.1,9.0,30.13,SW,218,5.0,7.0,36,0.00,,,0.00,Wunderground v.1.15,2013-01-07 00:12:00,
2013-01-06 17:15:00,33.1,9.0,30.13,WSW,243,4.0,7.0,36,0.00,,,0.00,Wunderground v.1.15,2013-01-07 00:15:00,
2013-01-06 17:17:00,33.1,8.4,30.13,WSW,255,7.0,7.0,35,0.00,,,0.00,Wunderground v.1.15,2013-01-07 00:17:00,
2013-01-06 17:18:00,33.1,8.4,30.13,WSW,250,9.0,9.0,35,0.00,,,0.00,Wunderground v.1.15,2013-01-07 00:18:00,
2013-01-06 17:20:00,32.7,8.0,30.13,WSW,249,3.0,5.0,35,0.00,,,0.00,Wunderground v.1.15,2013-01-07 00:20:00,
2013-01-06 17:23:00,32.6,8.6,30.13,WSW,240,4.0,6.0,36,0.00,,,0.00,Wunderground v.1.15,2013-01-07 00:23:00,
2013-01-06 17:26:00,32.4,8.4,30.13,WSW,240,4.0,7.0,36,0.00,,,0.00,Wunderground v.1.15,2013-01-07 00:26:00,
2013-01-06 17:28:00,32.4,9.0,30.13,WSW,243,5.0,7.0,37,0.00,,,0.00,Wunderground v.1.15,2013-01-07 00:28:00,
2013-01-06 17:31:00,32.0,8.0,30.13,SW,222,5.0,6.0,36,0.00,,,0.00,Wunderground v.1.15,2013-01-07 00:31:00,
2013-01-06 17:32:00,31.9,7.9,30.13,WSW,238,4.0,6.0,36,0.00,,,0.00,Wunderground v.1.15,2013-01-07 00:32:00,
2013-01-06 17:33:00,32.1,8.1,30.13,SSW,197,4.0,6.0,36,0.00,,,0.00,Wunderground v.1.15,2013-01-07 00:33:00,
2013-01-06 17:36:00,32.5,9.1,30.13,SSW,210,4.0,6.0,37,0.00,,,0.00,Wunderground v.1.15,2013-01-07 00:36:00,
2013-01-06 17:37:00,32.5,9.1,30.13,WSW,250,2.0,6.0,37,0.00,,,0.00,Wunderground v.1.15,2013-01-07 00:37:00,
2013-01-06 17:38:00,32.8,8.7,30.13,SW,224,4.0,6.0,36,0.00,,,0.00,Wunderground v.1.15,2013-01-07 00:38:00,
2013-01-06 17:39:00,32.9,8.8,30.13,SW,215,4.0,6.0,36,0.00,,,0.00,Wunderground v.1.15,2013-01-07 00:39:00,
2013-01-06 17:41:00,33.0,9.5,30.12,South,183,2.0,4.0,37,0.00,,,0.00,Wunderground v.1.15,2013-01-07 00:41:00,
2013-01-06 17:42:00,33.0,9.5,30.12,SSW,197,3.0,4.0,37,0.00,,,0.00,Wunderground v.1.15,2013-01-07 00:42:00,
2013-01-06 17:44:00,33.2,9.1,30.12,SW,217,3.0,5.0,36,0.00,,,0.00,Wunderground v.1.15,2013-01-07 00:44:00,
2013-01-06 17:46:00,33.2,9.1,30.13,SSW,203,2.0,5.0,36,0.00,,,0.00,Wunderground v.1.15,2013-01-07 00:46:00,
2013-01-06 17:47:00,33.2,9.1,30.13,SSW,194,3.0,5.0,36,0.00,,,0.00,Wunderground v.1.15,2013-01-07 00:47:00,
2013-01-06 17:49:00,33.0,10.1,30.13,South,181,4.0,5.0,38,0.00,,,0.00,Wunderground v.1.15,2013-01-07 00:49:00,
2013-01-06 17:51:00,33.1,9.6,30.13,SSW,203,2.0,5.0,37,0.00,,,0.00,Wunderground v.1.15,2013-01-07 00:51:00,
2013-01-06 17:52:00,33.1,9.6,30.13,SSW,210,3.0,5.0,37,0.00,,,0.00,Wunderground v.1.15,2013-01-07 00:52:00,
2013-01-06 17:54:00,32.9,10.0,30.13,WSW,253,4.0,5.0,38,0.00,,,0.00,Wunderground v.1.15,2013-01-07 00:54:00,
2013-01-06 17:57:00,32.7,8.6,30.13,WSW,253,6.0,7.0,36,0.00,,,0.00,Wunderground v.1.15,2013-01-07 00:57:00,
2013-01-06 17:59:00,32.2,8.8,30.13,SW,233,5.0,7.0,37,0.00,,,0.00,Wunderground v.1.15,2013-01-07 00:59:00,
2013-01-06 18:02:00,32.3,11.2,30.13,SSW,203,4.0,6.0,41,0.00,,,0.00,Wunderground v.1.15,2013-01-07 01:02:00,
2013-01-06 18:04:00,32.6,13.1,30.12,SSW,198,8.0,9.0,44,0.00,,,0.00,Wunderground v.1.15,2013-01-07 01:04:00,
2013-01-06 18:07:00,32.8,11.6,30.13,SSW,198,3.0,9.0,41,0.00,,,0.00,Wunderground v.1.15,2013-01-07 01:07:00,
2013-01-06 18:08:00,32.9,12.3,30.12,WSW,238,4.0,9.0,42,0.00,,,0.00,Wunderground v.1.15,2013-01-07 01:08:00,
2013-01-06 18:09:00,32.8,11.6,30.12,South,186,3.0,9.0,41,0.00,,,0.00,Wunderground v.1.15,2013-01-07 01:09:00,
2013-01-06 18:10:00,32.8,11.6,30.12,WSW,240,4.0,6.0,41,0.00,,,0.00,Wunderground v.1.15,2013-01-07 01:10:00,
2013-01-06 18:12:00,32.6,12.5,30.13,SSW,210,6.0,6.0,43,0.00,,,0.00,Wunderground v.1.15,2013-01-07 01:12:00,
2013-01-06 18:13:00,32.6,13.6,30.13,SSW,194,7.0,7.0,45,0.00,,,0.00,Wunderground v.1.15,2013-01-07 01:13:00,
2013-01-06 18:14:00,32.7,15.6,30.12,WSW,253,4.0,7.0,49,0.00,,,0.00,Wunderground v.1.15,2013-01-07 01:14:00,
2013-01-06 18:15:00,32.7,15.6,30.12,SSW,210,3.0,7.0,49,0.00,,,0.00,Wunderground v.1.15,2013-01-07 01:15:00,
2013-01-06 18:17:00,32.5,14.0,30.13,WSW,250,4.0,7.0,46,0.00,,,0.00,Wunderground v.1.15,2013-01-07 01:17:00,
2013-01-06 18:18:00,32.5,13.0,30.13,SW,219,4.0,7.0,44,0.00,,,0.00,Wunderground v.1.15,2013-01-07 01:18:00,
2013-01-06 18:19:00,32.4,14.9,30.13,SW,231,2.0,7.0,48,0.00,,,0.00,Wunderground v.1.15,2013-01-07 01:19:00,
2013-01-06 18:20:00,32.3,14.8,30.13,SW,228,3.0,4.0,48,0.00,,,0.00,Wunderground v.1.15,2013-01-07 01:20:00,
2013-01-06 18:22:00,32.3,13.8,30.13,WSW,246,6.0,6.0,46,0.00,,,0.00,Wunderground v.1.15,2013-01-07 01:22:00,
2013-01-06 18:23:00,32.4,9.6,30.13,WSW,243,5.0,6.0,38,0.00,,,0.00,Wunderground v.1.15,2013-01-07 01:23:00,
2013-01-06 18:25:00,32.6,9.2,30.13,SW,215,3.0,6.0,37,0.00,,,0.00,Wunderground v.1.15,2013-01-07 01:25:00,
2013-01-06 18:27:00,32.7,11.0,30.13,WSW,248,2.0,6.0,40,0.00,,,0.00,Wunderground v.1.15,2013-01-07 01:27:00,
2013-01-06 18:28:00,32.7,9.8,30.13,West,260,5.0,6.0,38,0.00,,,0.00,Wunderground v.1.15,2013-01-07 01:28:00,
2013-01-06 18:30:00,32.6,9.2,30.13,SSW,210,4.0,5.0,37,0.00,,,0.00,Wunderground v.1.15,2013-01-07 01:30:00,
2013-01-06 18:32:00,32.2,8.8,30.13,WSW,245,5.0,6.0,37,0.00,,,0.00,Wunderground v.1.15,2013-01-07 01:32:00,
2013-01-06 18:34:00,31.9,9.7,30.13,SSW,193,4.0,6.0,39,0.00,,,0.00,Wunderground v.1.15,2013-01-07 01:34:00,
2013-01-06 18:35:00,32.0,11.5,30.13,SW,231,4.0,6.0,42,0.00,,,0.00,Wunderground v.1.15,2013-01-07 01:35:00,
2013-01-06 18:37:00,32.1,9.9,30.13,SW,231,5.0,6.0,39,0.00,,,0.00,Wunderground v.1.15,2013-01-07 01:37:00,
2013-01-06 18:39:00,32.3,8.3,30.13,SW,221,4.0,6.0,36,0.00,,,0.00,Wunderground v.1.15,2013-01-07 01:39:00,
2013-01-06 18:40:00,32.4,11.8,30.13,SSW,205,5.0,6.0,42,0.00,,,0.00,Wunderground v.1.15,2013-01-07 01:40:00,
2013-01-06 18:42:00,32.5,9.1,30.13,SSW,204,3.0,6.0,37,0.00,,,0.00,Wunderground v.1.15,2013-01-07 01:42:00,
2013-01-06 18:44:00,32.7,8.6,30.13,SW,219,5.0,6.0,36,0.00,,,0.00,Wunderground v.1.15,2013-01-07 01:44:00,
2013-01-06 18:45:00,32.8,12.7,30.13,SW,229,4.0,6.0,43,0.00,,,0.00,Wunderground v.1.15,2013-01-07 01:45:00,
2013-01-06 18:46:00,32.8,12.7,30.13,SW,229,4.0,6.0,43,0.00,,,0.00,Wunderground v.1.15,2013-01-07 01:46:00,
2013-01-06 18:47:00,32.8,8.7,30.13,SW,228,4.0,6.0,36,0.00,,,0.00,Wunderground v.1.15,2013-01-07 01:47:00,
2013-01-06 18:49:00,32.9,8.8,30.13,SSW,203,4.0,6.0,36,0.00,,,0.00,Wunderground v.1.15,2013-01-07 01:49:00,
2013-01-06 18:50:00,32.8,8.7,30.13,SSW,207,2.0,5.0,36,0.00,,,0.00,Wunderground v.1.15,2013-01-07 01:50:00,
2013-01-06 18:51:00,32.7,8.6,30.13,SW,215,2.0,5.0,36,0.00,,,0.00,Wunderground v.1.15,2013-01-07 01:51:00,
2013-01-06 18:52:00,32.6,9.2,30.13,SSW,205,1.0,5.0,37,0.00,,,0.00,Wunderground v.1.15,2013-01-07 01:52:00,
2013-01-06 18:54:00,32.5,10.3,30.13,SW,224,3.0,5.0,39,0.00,,,0.00,Wunderground v.1.15,2013-01-07 01:54:00,
2013-01-06 18:56:00,32.6,10.9,30.13,WSW,238,4.0,6.0,40,0.00,,,0.00,Wunderground v.1.15,2013-01-07 01:56:00,
2013-01-06 18:57:00,32.7,8.6,30.13,SW,236,4.0,6.0,36,0.00,,,0.00,Wunderground v.1.15,2013-01-07 01:57:00,
2013-01-06 19:00:00,32.8,11.1,30.13,South,185,5.0,5.0,40,0.00,,,0.00,Wunderground v.1.15,2013-01-07 02:00:00,
2013-01-06 19:01:00,32.7,11.0,30.13,SSW,201,2.0,6.0,40,0.00,,,0.00,Wunderground v.1.15,2013-01-07 02:01:00,
2013-01-06 19:02:00,32.5,11.4,30.13,SSW,203,4.0,6.0,41,0.00,,,0.00,Wunderground v.1.15,2013-01-07 02:02:00,
2013-01-06 19:05:00,32.3,8.9,30.13,WSW,257,5.0,7.0,37,0.00,,,0.00,Wunderground v.1.15,2013-01-07 02:05:00,
2013-01-06 19:06:00,32.0,9.2,30.13,WSW,250,2.0,7.0,38,0.00,,,0.00,Wunderground v.1.15,2013-01-07 02:06:00,
2013-01-06 19:07:00,31.9,9.1,30.13,SSW,207,2.0,7.0,38,0.00,,,0.00,Wunderground v.1.15,2013-01-07 02:07:00,
2013-01-06 19:10:00,32.0,9.2,30.13,SW,236,4.0,6.0,38,0.00,,,0.00,Wunderground v.1.15,2013-01-07 02:10:00,
2013-01-06 19:11:00,32.1,9.9,30.13,South,179,4.0,6.0,39,0.00,,,0.00,Wunderground v.1.15,2013-01-07 02:11:00,
2013-01-06 19:12:00,32.2,11.1,30.13,SSW,193,6.0,6.0,41,0.00,,,0.00,Wunderground v.1.15,2013-01-07 02:12:00,
2013-01-06 19:15:00,32.6,8.6,30.13,WSW,238,5.0,7.0,36,0.00,,,0.00,Wunderground v.1.15,2013-01-07 02:15:00,
2013-01-06 19:16:00,32.7,8.6,30.13,WSW,240,6.0,7.0,36,0.00,,,0.00,Wunderground v.1.15,2013-01-07 02:16:00,
2013-01-06 19:17:00,32.8,8.7,30.13,SW,231,5.0,7.0,36,0.00,,,0.00,Wunderground v.1.15,2013-01-07 02:17:00,
2013-01-06 19:20:00,33.2,7.2,30.13,SW,222,2.0,5.0,33,0.00,,,0.00,Wunderground v.1.15,2013-01-07 02:20:00,
2013-01-06 19:21:00,33.4,9.3,30.13,South,190,2.0,5.0,36,0.00,,,0.00,Wunderground v.1.15,2013-01-07 02:21:00,
2013-01-06 19:22:00,33.4,9.3,30.13,WSW,253,3.0,5.0,36,0.00,,,0.00,Wunderground v.1.15,2013-01-07 02:22:00,
2013-01-06 19:23:00,33.3,9.2,30.13,WSW,238,1.0,5.0,36,0.00,,,0.00,Wunderground v.1.15,2013-01-07 02:23:00,
2013-01-06 19:25:00,33.1,10.8,30.13,West,260,3.0,6.0,39,0.00,,,0.00,Wunderground v.1.15,2013-01-07 02:25:00,
2013-01-06 19:26:00,33.0,8.9,30.13,SSW,197,1.0,6.0,36,0.00,,,0.00,Wunderground v.1.15,2013-01-07 02:26:00,
2013-01-06 19:27:00,32.9,8.8,30.13,South,169,3.0,6.0,36,0.00,,,0.00,Wunderground v.1.15,2013-01-07 02:27:00,
2013-01-06 19:28:00,32.8,8.7,30.13,SSW,197,6.0,6.0,36,0.00,,,0.00,Wunderground v.1.15,2013-01-07 02:28:00,
2013-01-06 19:30:00,32.9,9.4,30.13,SSW,212,2.0,5.0,37,0.00,,,0.00,Wunderground v.1.15,2013-01-07 02:30:00,
2013-01-06 19:31:00,32.9,8.8,30.13,West,262,1.0,5.0,36,0.00,,,0.00,Wunderground v.1.15,2013-01-07 02:31:00,
2013-01-06 19:32:00,32.9,8.8,30.13,West,262,0.0,5.0,36,0.00,,,0.00,Wunderground v.1.15,2013-01-07 02:32:00,
2013-01-06 19:33:00,32.9,8.8,30.13,SSE,152,1.0,5.0,36,0.00,,,0.00,Wunderground v.1.15,2013-01-07 02:33:00,
2013-01-06 19:35:00,33.1,7.1,30.13,SSW,210,1.0,6.0,33,0.00,,,0.00,Wunderground v.1.15,2013-01-07 02:35:00,
2013-01-06 19:37:00,33.4,8.6,30.13,SSW,193,2.0,6.0,35,0.00,,,0.00,Wunderground v.1.15,2013-01-07 02:37:00,
2013-01-06 19:38:00,33.5,10.6,30.13,SSW,207,6.0,6.0,38,0.00,,,0.00,Wunderground v.1.15,2013-01-07 02:38:00,
2013-01-06 19:41:00,33.6,11.2,30.13,WSW,253,2.0,6.0,39,0.00,,,0.00,Wunderground v.1.15,2013-01-07 02:41:00,
2013-01-06 19:42:00,33.6,8.8,30.13,WSW,243,4.0,6.0,35,0.00,,,0.00,Wunderground v.1.15,2013-01-07 02:42:00,
2013-01-06 19:43:00,33.8,7.7,30.13,WSW,245,5.0,6.0,33,0.00,,,0.00,Wunderground v.1.15,2013-01-07 02:43:00,
2013-01-06 19:46:00,33.9,7.8,30.13,WSW,249,6.0,7.0,33,0.00,,,0.00,Wunderground v.1.15,2013-01-07 02:46:00,
2013-01-06 19:47:00,33.9,7.1,30.13,WSW,238,6.0,7.0,32,0.00,,,0.00,Wunderground v.1.15,2013-01-07 02:47:00,
2013-01-06 19:48:00,34.0,7.2,30.13,South,184,4.0,7.0,32,0.00,,,0.00,Wunderground v.1.15,2013-01-07 02:48:00,
2013-01-06 19:52:00,33.8,7.7,30.13,WSW,238,4.0,6.0,33,0.00,,,0.00,Wunderground v.1.15,2013-01-07 02:52:00,
2013-01-06 19:53:00,33.9,7.1,30.13,SSW,210,4.0,6.0,32,0.00,,,0.00,Wunderground v.1.15,2013-01-07 02:53:00,
2013-01-06 19:54:00,34.1,8.0,30.12,WSW,238,5.0,6.0,33,0.00,,,0.00,Wunderground v.1.15,2013-01-07 02:54:00,
2013-01-06 19:55:00,34.3,8.1,30.13,WSW,238,6.0,6.0,33,0.00,,,0.00,Wunderground v.1.15,2013-01-07 02:55:00,
2013-01-06 19:58:00,34.1,8.6,30.13,WSW,250,3.0,6.0,34,0.00,,,0.00,Wunderground v.1.15,2013-01-07 02:58:00,
2013-01-06 20:00:00,34.0,8.5,30.13,SW,215,1.0,4.0,34,0.00,,,0.00,Wunderground v.1.15,2013-01-07 03:00:00,
2013-01-06 20:03:00,33.5,8.1,30.13,West,267,4.0,5.0,34,0.00,,,0.00,Wunderground v.1.15,2013-01-07 03:03:00,
2013-01-06 20:04:00,33.5,8.1,30.13,West,264,6.0,6.0,34,0.00,,,0.00,Wunderground v.1.15,2013-01-07 03:04:00,
2013-01-06 20:05:00,33.1,7.7,30.13,WSW,253,4.0,6.0,34,0.00,,,0.00,Wunderground v.1.15,2013-01-07 03:05:00,
2013-01-06 20:09:00,33.2,7.2,30.12,WSW,240,5.0,6.0,33,0.00,,,0.00,Wunderground v.1.15,2013-01-07 03:09:00,
2013-01-06 20:11:00,33.2,7.2,30.12,WSW,245,4.0,6.0,33,0.00,,,0.00,Wunderground v.1.15,2013-01-07 03:11:00,
2013-01-06 20:14:00,33.2,7.8,30.12,SSW,204,7.0,7.0,34,0.00,,,0.00,Wunderground v.1.15,2013-01-07 03:14:00,
2013-01-06 20:15:00,33.4,8.0,30.12,SW,231,5.0,7.0,34,0.00,,,0.00,Wunderground v.1.15,2013-01-07 03:15:00,
2013-01-06 20:17:00,33.5,7.4,30.12,WSW,250,3.0,7.0,33,0.00,,,0.00,Wunderground v.1.15,2013-01-07 03:17:00,
2013-01-06 20:18:00,33.5,7.4,30.12,WSW,246,4.0,7.0,33,0.00,,,0.00,Wunderground v.1.15,2013-01-07 03:18:00,
2013-01-06 20:19:00,33.5,7.4,30.11,SW,214,4.0,7.0,33,0.00,,,0.00,Wunderground v.1.15,2013-01-07 03:19:00,
2013-01-06 20:22:00,33.4,8.0,30.11,SSW,210,3.0,5.0,34,0.00,,,0.00,Wunderground v.1.15,2013-01-07 03:22:00,
2013-01-06 20:23:00,33.3,7.9,30.11,SW,219,5.0,6.0,34,0.00,,,0.00,Wunderground v.1.15,2013-01-07 03:23:00,
2013-01-06 20:24:00,33.2,7.8,30.11,WSW,246,5.0,7.0,34,0.00,,,0.00,Wunderground v.1.15,2013-01-07 03:24:00,
2013-01-06 20:27:00,33.1,8.4,30.11,SSW,212,3.0,7.0,35,0.00,,,0.00,Wunderground v.1.15,2013-01-07 03:27:00,
2013-01-06 20:28:00,33.1,8.4,30.11,WSW,238,3.0,7.0,35,0.00,,,0.00,Wunderground v.1.15,2013-01-07 03:28:00,
2013-01-06 20:29:00,33.2,7.8,30.11,SW,224,4.0,7.0,34,0.00,,,0.00,Wunderground v.1.15,2013-01-07 03:29:00,
2013-01-06 20:32:00,33.5,7.4,30.12,WSW,240,6.0,7.0,33,0.00,,,0.00,Wunderground v.1.15,2013-01-07 03:32:00,
2013-01-06 20:33:00,33.6,7.5,30.12,WSW,250,5.0,7.0,33,0.00,,,0.00,Wunderground v.1.15,2013-01-07 03:33:00,
2013-01-06 20:35:00,33.8,7.7,30.11,WSW,253,6.0,7.0,33,0.00,,,0.00,Wunderground v.1.15,2013-01-07 03:35:00,
2013-01-06 20:37:00,34.4,8.2,30.11,SW,215,6.0,7.0,33,0.00,,,0.00,Wunderground v.1.15,2013-01-07 03:37:00,
2013-01-06 20:38:00,34.6,9.1,30.11,SW,228,6.0,8.0,34,0.00,,,0.00,Wunderground v.1.15,2013-01-07 03:38:00,
2013-01-06 20:40:00,34.9,9.3,30.11,SW,236,6.0,8.0,34,0.00,,,0.00,Wunderground v.1.15,2013-01-07 03:40:00,
2013-01-06 20:42:00,35.3,9.0,30.11,SSW,201,3.0,8.0,33,0.00,,,0.00,Wunderground v.1.15,2013-01-07 03:42:00,
2013-01-06 20:43:00,35.4,9.1,30.11,South,190,6.0,8.0,33,0.00,,,0.00,Wunderground v.1.15,2013-01-07 03:43:00,
2013-01-06 20:45:00,35.4,11.1,30.10,South,181,8.0,8.0,36,0.00,,,0.00,Wunderground v.1.15,2013-01-07 03:45:00,
2013-01-06 20:47:00,35.3,12.8,30.11,WSW,256,3.0,8.0,39,0.00,,,0.00,Wunderground v.1.15,2013-01-07 03:47:00,
2013-01-06 20:48:00,35.3,12.8,30.11,WSW,254,3.0,8.0,39,0.00,,,0.00,Wunderground v.1.15,2013-01-07 03:48:00,
2013-01-06 20:50:00,35.3,9.7,30.11,South,190,5.0,5.0,34,0.00,,,0.00,Wunderground v.1.15,2013-01-07 03:50:00,
2013-01-06 20:53:00,35.6,13.0,30.10,SSW,204,8.0,10.0,39,0.00,,,0.00,Wunderground v.1.15,2013-01-07 03:53:00,
2013-01-06 20:55:00,35.4,12.3,30.10,WSW,238,7.0,10.0,38,0.00,,,0.00,Wunderground v.1.15,2013-01-07 03:55:00,
2013-01-06 20:58:00,35.7,9.4,30.10,WSW,245,6.0,10.0,33,0.00,,,0.00,Wunderground v.1.15,2013-01-07 03:58:00,
2013-01-06 21:00:00,35.6,9.3,30.10,WSW,250,5.0,6.0,33,0.00,,,0.00,Wunderground v.1.15,2013-01-07 04:00:00,
2013-01-06 21:03:00,35.5,9.2,30.10,SE,145,4.0,6.0,33,0.00,,,0.00,Wunderground v.1.15,2013-01-07 04:03:00,
2013-01-06 21:04:00,35.5,9.2,30.10,South,174,5.0,6.0,33,0.00,,,0.00,Wunderground v.1.15,2013-01-07 04:04:00,
2013-01-06 21:05:00,35.7,10.0,30.10,South,190,5.0,7.0,34,0.00,,,0.00,Wunderground v.1.15,2013-01-07 04:05:00,
2013-01-06 21:06:00,35.7,9.4,30.10,SSW,197,5.0,7.0,33,0.00,,,0.00,Wunderground v.1.15,2013-01-07 04:06:00,
2013-01-06 21:08:00,36.5,8.7,30.10,SW,220,5.0,7.0,31,0.00,,,0.00,Wunderground v.1.15,2013-01-07 04:08:00,
2013-01-06 21:09:00,36.6,8.0,30.10,SW,221,5.0,7.0,30,0.00,,,0.00,Wunderground v.1.15,2013-01-07 04:09:00,
2013-01-06 21:11:00,36.9,9.7,30.09,South,170,6.0,6.0,32,0.00,,,0.00,Wunderground v.1.15,2013-01-07 04:11:00,
2013-01-06 21:14:00,36.6,12.1,30.10,SSE,158,2.0,8.0,36,0.00,,,0.00,Wunderground v.1.15,2013-01-07 04:14:00,
2013-01-06 21:16:00,36.3,10.6,30.10,NNW,344,1.0,8.0,34,0.00,,,0.00,Wunderground v.1.15,2013-01-07 04:16:00,
2013-01-06 21:19:00,36.3,9.2,30.10,SW,236,2.0,8.0,32,0.00,,,0.00,Wunderground v.1.15,2013-01-07 04:19:00,
2013-01-06 21:21:00,36.3,9.9,30.09,South,188,6.0,6.0,33,0.00,,,0.00,Wunderground v.1.15,2013-01-07 04:21:00,
2013-01-06 21:24:00,36.3,10.6,30.09,SSW,209,7.0,8.0,34,0.00,,,0.00,Wunderground v.1.15,2013-01-07 04:24:00,
2013-01-06 21:26:00,36.6,8.8,30.09,WSW,248,1.0,8.0,31,0.00,,,0.00,Wunderground v.1.15,2013-01-07 04:26:00,
2013-01-06 21:30:00,37.2,6.2,30.10,SW,231,3.0,4.0,27,0.00,,,0.00,Wunderground v.1.15,2013-01-07 04:30:00,
2013-01-06 21:31:00,37.5,7.3,30.10,SW,215,3.0,4.0,28,0.00,,,0.00,Wunderground v.1.15,2013-01-07 04:31:00,
2013-01-06 21:32:00,37.7,7.5,30.10,SSW,198,3.0,4.0,28,0.00,,,0.00,Wunderground v.1.15,2013-01-07 04:32:00,
2013-01-06 21:35:00,37.7,11.8,30.09,SW,231,8.0,11.0,34,0.00,,,0.00,Wunderground v.1.15,2013-01-07 04:35:00,
2013-01-06 21:36:00,37.6,11.7,30.09,SW,233,6.0,11.0,34,0.00,,,0.00,Wunderground v.1.15,2013-01-07 04:36:00,
2013-01-06 21:37:00,37.6,11.7,30.09,WSW,243,5.0,11.0,34,0.00,,,0.00,Wunderground v.1.15,2013-01-07 04:37:00,
2013-01-06 21:41:00,38.0,11.4,30.09,South,174,3.0,6.0,33,0.00,,,0.00,Wunderground v.1.15,2013-01-07 04:41:00,
2013-01-06 21:42:00,37.9,12.6,30.09,SSW,193,5.0,8.0,35,0.00,,,0.00,Wunderground v.1.15,2013-01-07 04:42:00,
2013-01-06 21:46:00,37.6,11.0,30.09,NW,314,3.0,8.0,33,0.00,,,0.00,Wunderground v.1.15,2013-01-07 04:46:00,
2013-01-06 21:47:00,37.5,9.6,30.09,NW,309,1.0,8.0,31,0.00,,,0.00,Wunderground v.1.15,2013-01-07 04:47:00,
2013-01-06 21:51:00,38.1,8.6,30.08,South,188,4.0,5.0,29,0.00,,,0.00,Wunderground v.1.15,2013-01-07 04:51:00,
2013-01-06 21:52:00,38.3,10.3,30.09,West,262,2.0,5.0,31,0.00,,,0.00,Wunderground v.1.15,2013-01-07 04:52:00,
2013-01-06 21:56:00,38.2,8.7,30.09,SSW,211,3.0,5.0,29,0.00,,,0.00,Wunderground v.1.15,2013-01-07 04:56:00,
2013-01-06 21:57:00,38.2,8.7,30.09,SSW,199,2.0,5.0,29,0.00,,,0.00,Wunderground v.1.15,2013-01-07 04:57:00,
2013-01-06 22:00:00,38.4,10.3,30.09,SW,222,4.0,4.0,31,0.00,,,0.00,Wunderground v.1.15,2013-01-07 05:00:00,
2013-01-06 22:05:00,38.3,9.5,30.09,SSE,156,1.0,6.0,30,0.00,,,0.00,Wunderground v.1.15,2013-01-07 05:05:00,
2013-01-06 22:10:00,38.5,8.9,30.09,West,259,2.0,3.0,29,0.00,,,0.00,Wunderground v.1.15,2013-01-07 05:10:00,
2013-01-06 22:15:00,38.4,10.3,30.09,South,186,8.0,8.0,31,0.00,,,0.00,Wunderground v.1.15,2013-01-07 05:15:00,
2013-01-06 22:20:00,38.7,7.5,30.08,West,264,3.0,3.0,27,0.00,,,0.00,Wunderground v.1.15,2013-01-07 05:20:00,
2013-01-06 22:21:00,38.8,8.4,30.08,West,259,3.0,3.0,28,0.00,,,0.00,Wunderground v.1.15,2013-01-07 05:21:00,
2013-01-06 22:25:00,39.2,8.8,30.09,SSE,158,3.0,4.0,28,0.00,,,0.00,Wunderground v.1.15,2013-01-07 05:25:00,
2013-01-06 22:26:00,39.2,11.0,30.09,South,169,3.0,4.0,31,0.00,,,0.00,Wunderground v.1.15,2013-01-07 05:26:00,
2013-01-06 22:30:00,38.8,12.1,30.08,SSW,205,0.0,3.0,33,0.00,,,0.00,Wunderground v.1.15,2013-01-07 05:30:00,
2013-01-06 22:31:00,38.8,12.1,30.08,SSW,207,0.0,3.0,33,0.00,,,0.00,Wunderground v.1.15,2013-01-07 05:31:00,
2013-01-06 22:35:00,38.2,10.9,30.09,SW,222,1.0,3.0,32,0.00,,,0.00,Wunderground v.1.15,2013-01-07 05:35:00,
2013-01-06 22:36:00,38.1,10.8,30.09,SW,224,3.0,3.0,32,0.00,,,0.00,Wunderground v.1.15,2013-01-07 05:36:00,
2013-01-06 22:40:00,38.1,11.5,30.09,SW,222,4.0,4.0,33,0.00,,,0.00,Wunderground v.1.15,2013-01-07 05:40:00,
2013-01-06 22:41:00,38.1,10.8,30.08,WSW,249,3.0,4.0,32,0.00,,,0.00,Wunderground v.1.15,2013-01-07 05:41:00,
2013-01-06 22:42:00,38.1,10.8,30.08,WSW,250,2.0,4.0,32,0.00,,,0.00,Wunderground v.1.15,2013-01-07 05:42:00,
2013-01-06 22:45:00,37.7,9.7,30.09,WSW,250,6.0,6.0,31,0.00,,,0.00,Wunderground v.1.15,2013-01-07 05:45:00,
2013-01-06 22:46:00,37.6,9.6,30.09,WSW,256,5.0,6.0,31,0.00,,,0.00,Wunderground v.1.15,2013-01-07 05:46:00,
2013-01-06 22:47:00,37.4,10.2,30.08,WSW,253,4.0,6.0,32,0.00,,,0.00,Wunderground v.1.15,2013-01-07 05:47:00,
2013-01-06 22:51:00,37.1,9.9,30.09,West,264,4.0,5.0,32,0.00,,,0.00,Wunderground v.1.15,2013-01-07 05:51:00,
2013-01-06 22:52:00,37.0,9.8,30.09,WSW,257,4.0,6.0,32,0.00,,,0.00,Wunderground v.1.15,2013-01-07 05:52:00,
2013-01-06 22:56:00,36.7,10.9,30.09,SSW,210,3.0,6.0,34,0.00,,,0.00,Wunderground v.1.15,2013-01-07 05:56:00,
2013-01-06 22:57:00,36.6,11.5,30.09,SW,233,3.0,6.0,35,0.00,,,0.00,Wunderground v.1.15,2013-01-07 05:57:00,
2013-01-06 23:01:00,36.3,10.6,30.09,WSW,238,3.0,5.0,34,0.00,,,0.00,Wunderground v.1.15,2013-01-07 06:01:00,
2013-01-06 23:02:00,36.3,10.6,30.09,West,259,4.0,5.0,34,0.00,,,0.00,Wunderground v.1.15,2013-01-07 06:02:00,
2013-01-06 23:06:00,36.3,9.9,30.09,SSW,194,2.0,5.0,33,0.00,,,0.00,Wunderground v.1.15,2013-01-07 06:06:00,
2013-01-06 23:08:00,36.3,11.9,30.09,South,186,5.0,7.0,36,0.00,,,0.00,Wunderground v.1.15,2013-01-07 06:08:00,
2013-01-06 23:11:00,36.1,9.7,30.09,WSW,246,3.0,4.0,33,0.00,,,0.00,Wunderground v.1.15,2013-01-07 06:11:00,
2013-01-06 23:12:00,36.2,8.4,30.09,WSW,240,3.0,4.0,31,0.00,,,0.00,Wunderground v.1.15,2013-01-07 06:12:00,
2013-01-06 23:13:00,36.4,9.3,30.09,WSW,250,6.0,6.0,32,0.00,,,0.00,Wunderground v.1.15,2013-01-07 06:13:00,
2013-01-06 23:16:00,36.3,10.6,30.09,SSW,200,3.0,6.0,34,0.00,,,0.00,Wunderground v.1.15,2013-01-07 06:16:00,
2013-01-06 23:17:00,36.2,10.5,30.09,SSW,203,2.0,6.0,34,0.00,,,0.00,Wunderground v.1.15,2013-01-07 06:17:00,
2013-01-06 23:18:00,36.3,10.6,30.09,SSW,212,1.0,6.0,34,0.00,,,0.00,Wunderground v.1.15,2013-01-07 06:18:00,
2013-01-06 23:21:00,36.0,9.6,30.09,WSW,256,6.0,6.0,33,0.00,,,0.00,Wunderground v.1.15,2013-01-07 06:21:00,
2013-01-06 23:22:00,35.9,9.5,30.09,WSW,240,5.0,6.0,33,0.00,,,0.00,Wunderground v.1.15,2013-01-07 06:22:00,
2013-01-06 23:23:00,36.1,9.7,30.09,SW,222,4.0,6.0,33,0.00,,,0.00,Wunderground v.1.15,2013-01-07 06:23:00,
2013-01-06 23:26:00,36.2,9.8,30.09,SW,233,4.0,8.0,33,0.00,,,0.00,Wunderground v.1.15,2013-01-07 06:26:00,
2013-01-06 23:27:00,36.3,9.9,30.09,SW,236,4.0,8.0,33,0.00,,,0.00,Wunderground v.1.15,2013-01-07 06:27:00,
2013-01-06 23:28:00,36.3,9.9,30.08,South,169,4.0,8.0,33,0.00,,,0.00,Wunderground v.1.15,2013-01-07 06:28:00,
2013-01-06 23:32:00,36.2,10.5,30.09,WSW,256,6.0,7.0,34,0.00,,,0.00,Wunderground v.1.15,2013-01-07 06:32:00,
2013-01-06 23:33:00,36.1,10.4,30.09,WSW,253,6.0,7.0,34,0.00,,,0.00,Wunderground v.1.15,2013-01-07 06:33:00,
2013-01-06 23:37:00,36.3,10.6,30.08,SSW,201,4.0,7.0,34,0.00,,,0.00,Wunderground v.1.15,2013-01-07 06:37:00,
2013-01-06 23:38:00,36.4,10.7,30.08,WSW,253,3.0,7.0,34,0.00,,,0.00,Wunderground v.1.15,2013-01-07 06:38:00,
2013-01-06 23:42:00,36.2,10.5,30.08,SW,228,8.0,8.0,34,0.00,,,0.00,Wunderground v.1.15,2013-01-07 06:42:00,
2013-01-06 23:43:00,36.0,11.0,30.08,WSW,246,6.0,8.0,35,0.00,,,0.00,Wunderground v.1.15,2013-01-07 06:43:00,
2013-01-06 23:47:00,35.9,10.2,30.08,WSW,248,4.0,8.0,34,0.00,,,0.00,Wunderground v.1.15,2013-01-07 06:47:00,
2013-01-06 23:48:00,36.0,10.3,30.08,West,260,6.0,8.0,34,0.00,,,0.00,Wunderground v.1.15,2013-01-07 06:48:00,
2013-01-06 23:52:00,35.9,10.9,30.08,West,270,3.0,6.0,35,0.00,,,0.00,Wunderground v.1.15,2013-01-07 06:52:00,
2013-01-06 23:54:00,35.9,10.9,30.08,WSW,250,4.0,6.0,35,0.00,,,0.00,Wunderground v.1.15,2013-01-07 06:54:00,
2013-01-06 23:57:00,36.4,10.0,30.08,SSW,193,2.0,6.0,33,0.00,,,0.00,Wunderground v.1.15,2013-01-07 06:57:00,
2013-01-06 23:58:00,36.5,9.4,30.08,West,273,1.0,6.0,32,0.00,,,0.00,Wunderground v.1.15,2013-01-07 06:58:00,
2013-01-06 23:59:00,36.6,10.8,30.08,West,273,2.0,6.0,34,0.00,,,0.00,Wunderground v.1.15,2013-01-07 06:59:00,